Observation data for Dozier on 02/15/2017      Previous  Date  Next       Current Mesonet Observations  Soil Data  Daily Summary Page  Observations in Plain Language
KDO1 150600Z 30009KT 03/M01 A3015 RMK A01 T00301011  RH  074%=      5-min Rain = 0
KDO1 150601Z 30010KT 03/M01 A3015 RMK A01 T00311011  RH  074%=      5-min Rain = 0
KDO1 150602Z 30011KT 03/M01 A3015 RMK A01 T00311011  RH  074%=      5-min Rain = 0
KDO1 150603Z 30010KT 03/M01 A3015 RMK A01 T00321011  RH  074%=      5-min Rain = 0
KDO1 150604Z 30009KT 03/M01 A3015 RMK A01 T00321011  RH  073%=      5-min Rain = 0
KDO1 150605Z 31009KT 03/M01 A3015 RMK A01 T00321011  RH  073%=      5-min Rain = 0
KDO1 150606Z 31010KT 03/M01 A3015 RMK A01 T00321012  RH  073%=      5-min Rain = 0
KDO1 150607Z 30010KT 03/M01 A3015 RMK A01 T00321011  RH  073%=      5-min Rain = 0
KDO1 150608Z 31010KT 03/M01 A3015 RMK A01 T00321012  RH  073%=      5-min Rain = 0
KDO1 150609Z 30010KT 03/M01 A3015 RMK A01 T00321012  RH  073%=      5-min Rain = 0
KDO1 150610Z 30010KT 03/M01 A3015 RMK A01 T00331012  RH  073%=      5-min Rain = 0
KDO1 150611Z 31009KT 03/M01 A3015 RMK A01 T00331012  RH  073%=      5-min Rain = 0
KDO1 150612Z 31010KT 03/M01 A3015 RMK A01 T00321012  RH  073%=      5-min Rain = 0
KDO1 150613Z 31010KT 03/M01 A3015 RMK A01 T00331012  RH  073%=      5-min Rain = 0
KDO1 150614Z 31010KT 03/M01 A3015 RMK A01 T00321012  RH  073%=      5-min Rain = 0
KDO1 150615Z 30010KT 03/M01 A3015 RMK A01 T00321012  RH  073%=      5-min Rain = 0
KDO1 150616Z 31010KT 03/M01 A3015 RMK A01 T00321012  RH  073%=      5-min Rain = 0
KDO1 150617Z 31011KT 03/M01 A3015 RMK A01 T00321013  RH  072%=      5-min Rain = 0
KDO1 150618Z 31010KT 03/M01 A3015 RMK A01 T00321013  RH  072%=      5-min Rain = 0
KDO1 150619Z 31010KT 03/M01 A3015 RMK A01 T00331012  RH  072%=      5-min Rain = 0
KDO1 150620Z 31010KT 03/M01 A3015 RMK A01 T00331012  RH  072%=      5-min Rain = 0
KDO1 150621Z 31010KT 03/M01 A3015 RMK A01 T00331013  RH  072%=      5-min Rain = 0
KDO1 150622Z 31010KT 03/M01 A3015 RMK A01 T00331013  RH  072%=      5-min Rain = 0
KDO1 150623Z 31011KT 03/M01 A3015 RMK A01 T00331013  RH  072%=      5-min Rain = 0
KDO1 150624Z 31010G15KT 03/M01 A3015 RMK A01 T00331013  RH  072%=      5-min Rain = 0
KDO1 150625Z 31010KT 03/M01 A3015 RMK A01 T00331013  RH  072%=      5-min Rain = 0
KDO1 150626Z 31009KT 03/M01 A3015 RMK A01 T00321013  RH  072%=      5-min Rain = 0
KDO1 150627Z 31011KT 03/M01 A3015 RMK A01 T00321014  RH  072%=      5-min Rain = 0
KDO1 150628Z 31011KT 03/M01 A3015 RMK A01 T00321014  RH  072%=      5-min Rain = 0
KDO1 150629Z 31011KT 03/M01 A3015 RMK A01 T00331013  RH  072%=      5-min Rain = 0
KDO1 150630Z 31010KT 03/M01 A3015 RMK A01 T00331014  RH  072%=      5-min Rain = 0
KDO1 150631Z 31011KT 03/M01 A3015 RMK A01 T00331014  RH  072%=      5-min Rain = 0
KDO1 150632Z 31010KT 03/M01 A3015 RMK A01 T00331014  RH  072%=      5-min Rain = 0
KDO1 150633Z 32010KT 03/M01 A3015 RMK A01 T00331014  RH  072%=      5-min Rain = 0
KDO1 150634Z 31010KT 03/M01 A3015 RMK A01 T00331014  RH  071%=      5-min Rain = 0
KDO1 150635Z 31009KT 03/M01 A3015 RMK A01 T00331014  RH  071%=      5-min Rain = 0
KDO1 150636Z 32010KT 03/M01 A3015 RMK A01 T00331014  RH  072%=      5-min Rain = 0
KDO1 150637Z 32009KT 03/M01 A3015 RMK A01 T00321014  RH  072%=      5-min Rain = 0
KDO1 150638Z 32009KT 03/M01 A3016 RMK A01 T00321014  RH  072%=      5-min Rain = 0
KDO1 150639Z 32009KT 03/M01 A3016 RMK A01 T00321014  RH  072%=      5-min Rain = 0
KDO1 150640Z 33008KT 03/M01 A3016 RMK A01 T00311014  RH  072%=      5-min Rain = 0
KDO1 150641Z 33006KT 03/M02 A3016 RMK A01 T00311015  RH  072%=      5-min Rain = 0
KDO1 150642Z 34006KT 03/M02 A3016 RMK A01 T00291015  RH  073%=      5-min Rain = 0
KDO1 150643Z 34006KT 03/M02 A3016 RMK A01 T00291015  RH  073%=      5-min Rain = 0
KDO1 150644Z 34006KT 03/M02 A3016 RMK A01 T00281015  RH  073%=      5-min Rain = 0
KDO1 150645Z 34006KT 03/M02 A3016 RMK A01 T00271016  RH  074%=      5-min Rain = 0
KDO1 150646Z 34006KT 03/M02 A3016 RMK A01 T00271016  RH  074%=      5-min Rain = 0
KDO1 150647Z 34005KT 03/M02 A3016 RMK A01 T00271016  RH  074%=      5-min Rain = 0
KDO1 150648Z 34006KT 03/M02 A3016 RMK A01 T00261016  RH  074%=      5-min Rain = 0
KDO1 150649Z 34007KT 03/M02 A3016 RMK A01 T00261016  RH  074%=      5-min Rain = 0
KDO1 150650Z 33008KT 03/M02 A3016 RMK A01 T00271015  RH  074%=      5-min Rain = 0
KDO1 150651Z 34007KT 03/M02 A3016 RMK A01 T00261015  RH  074%=      5-min Rain = 0
KDO1 150652Z 34007KT 03/M02 A3016 RMK A01 T00261016  RH  074%=      5-min Rain = 0
KDO1 150653Z 33007KT 03/M02 A3016 RMK A01 T00261016  RH  074%=      5-min Rain = 0
KDO1 150654Z 34008KT 03/M02 A3016 RMK A01 T00261016  RH  074%=      5-min Rain = 0
KDO1 150655Z 33008KT 03/M02 A3016 RMK A01 T00261016  RH  074%=      5-min Rain = 0
KDO1 150656Z 33007KT 03/M02 A3016 RMK A01 T00251016  RH  074%=      5-min Rain = 0
KDO1 150657Z 33008KT 03/M02 A3016 RMK A01 T00251016  RH  074%=      5-min Rain = 0
KDO1 150658Z 33008KT 02/M02 A3016 RMK A01 T00241016  RH  075%=      5-min Rain = 0
KDO1 150659Z 33008KT 02/M02 A3016 RMK A01 T00241016  RH  075%=      5-min Rain = 0
KDO1 150700Z 33008KT 02/M02 A3016 RMK A01 T00241016  RH  075%=      5-min Rain = 0
KDO1 150701Z 33008KT 02/M02 A3016 RMK A01 T00241016  RH  075%=      5-min Rain = 0
KDO1 150702Z 34009KT 02/M02 A3016 RMK A01 T00241016  RH  075%=      5-min Rain = 0
KDO1 150703Z 33009KT 02/M02 A3016 RMK A01 T00241016  RH  075%=      5-min Rain = 0
KDO1 150704Z 33010KT 02/M02 A3016 RMK A01 T00241017  RH  075%=      5-min Rain = 0
KDO1 150705Z 33008KT 02/M02 A3016 RMK A01 T00241016  RH  075%=      5-min Rain = 0
KDO1 150706Z 33009KT 03/M02 A3016 RMK A01 T00251016  RH  074%=      5-min Rain = 0
KDO1 150707Z 33008KT 03/M02 A3016 RMK A01 T00251016  RH  074%=      5-min Rain = 0
KDO1 150708Z 33009KT 03/M02 A3016 RMK A01 T00251016  RH  074%=      5-min Rain = 0
KDO1 150709Z 33009KT 03/M02 A3016 RMK A01 T00251016  RH  074%=      5-min Rain = 0
KDO1 150710Z 34008KT 03/M02 A3016 RMK A01 T00251016  RH  074%=      5-min Rain = 0
KDO1 150711Z 33008KT 02/M02 A3016 RMK A01 T00241017  RH  074%=      5-min Rain = 0
KDO1 150712Z 34009KT 02/M02 A3016 RMK A01 T00241017  RH  075%=      5-min Rain = 0
KDO1 150713Z 33008KT 02/M02 A3016 RMK A01 T00241017  RH  075%=      5-min Rain = 0
KDO1 150714Z 34007KT 02/M02 A3016 RMK A01 T00241017  RH  074%=      5-min Rain = 0
KDO1 150715Z 33008KT 02/M02 A3016 RMK A01 T00241017  RH  074%=      5-min Rain = 0
KDO1 150716Z 34008KT 02/M02 A3016 RMK A01 T00241017  RH  075%=      5-min Rain = 0
KDO1 150717Z 34008KT 02/M02 A3016 RMK A01 T00241017  RH  074%=      5-min Rain = 0
KDO1 150718Z 33008KT 02/M02 A3016 RMK A01 T00241017  RH  074%=      5-min Rain = 0
KDO1 150719Z 34007KT 02/M02 A3016 RMK A01 T00241017  RH  074%=      5-min Rain = 0
KDO1 150720Z 34008KT 02/M02 A3016 RMK A01 T00241017  RH  074%=      5-min Rain = 0
KDO1 150721Z 34008KT 02/M02 A3016 RMK A01 T00241017  RH  074%=      5-min Rain = 0
KDO1 150722Z 34007KT 02/M02 A3016 RMK A01 T00241017  RH  074%=      5-min Rain = 0
KDO1 150723Z 34008KT 02/M02 A3016 RMK A01 T00241018  RH  074%=      5-min Rain = 0
KDO1 150724Z 34008KT 02/M02 A3016 RMK A01 T00241017  RH  074%=      5-min Rain = 0
KDO1 150725Z 34009KT 03/M02 A3016 RMK A01 T00251017  RH  074%=      5-min Rain = 0
KDO1 150726Z 34008KT 03/M02 A3016 RMK A01 T00251017  RH  074%=      5-min Rain = 0
KDO1 150727Z 34008KT 02/M02 A3016 RMK A01 T00241017  RH  074%=      5-min Rain = 0
KDO1 150728Z 34008KT 02/M02 A3016 RMK A01 T00241018  RH  074%=      5-min Rain = 0
KDO1 150729Z 34008KT 03/M02 A3016 RMK A01 T00251017  RH  074%=      5-min Rain = 0
KDO1 150730Z 33009KT 03/M02 A3016 RMK A01 T00251017  RH  074%=      5-min Rain = 0
KDO1 150731Z 34008KT 03/M02 A3016 RMK A01 T00251017  RH  074%=      5-min Rain = 0
KDO1 150732Z 33009KT 03/M02 A3016 RMK A01 T00251017  RH  074%=      5-min Rain = 0
KDO1 150733Z 34008KT 03/M02 A3016 RMK A01 T00251018  RH  074%=      5-min Rain = 0
KDO1 150734Z 33009KT 03/M02 A3016 RMK A01 T00251017  RH  074%=      5-min Rain = 0
KDO1 150735Z 33008KT 03/M02 A3016 RMK A01 T00261017  RH  073%=      5-min Rain = 0
KDO1 150736Z 33008KT 03/M02 A3016 RMK A01 T00251017  RH  073%=      5-min Rain = 0
KDO1 150737Z 33008KT 03/M02 A3017 RMK A01 T00261017  RH  073%=      5-min Rain = 0
KDO1 150738Z 33009KT 03/M02 A3017 RMK A01 T00261017  RH  073%=      5-min Rain = 0
KDO1 150739Z 33008KT 03/M02 A3017 RMK A01 T00261017  RH  073%=      5-min Rain = 0
KDO1 150740Z 33009KT 03/M02 A3017 RMK A01 T00261017  RH  073%=      5-min Rain = 0
KDO1 150741Z 33009KT 03/M02 A3017 RMK A01 T00261018  RH  073%=      5-min Rain = 0
KDO1 150742Z 33009KT 03/M02 A3017 RMK A01 T00261017  RH  073%=      5-min Rain = 0
KDO1 150743Z 33009KT 03/M02 A3017 RMK A01 T00261018  RH  073%=      5-min Rain = 0
KDO1 150744Z 33009KT 03/M02 A3017 RMK A01 T00261017  RH  073%=      5-min Rain = 0
KDO1 150745Z 33009KT 03/M02 A3017 RMK A01 T00261017  RH  073%=      5-min Rain = 0
KDO1 150746Z 33008KT 03/M02 A3017 RMK A01 T00261017  RH  073%=      5-min Rain = 0
KDO1 150747Z 33010KT 03/M02 A3017 RMK A01 T00261018  RH  073%=      5-min Rain = 0
KDO1 150748Z 33009KT 03/M02 A3017 RMK A01 T00261017  RH  073%=      5-min Rain = 0
KDO1 150749Z 33009KT 03/M02 A3017 RMK A01 T00271018  RH  073%=      5-min Rain = 0
KDO1 150750Z 33009KT 03/M02 A3017 RMK A01 T00271018  RH  072%=      5-min Rain = 0
KDO1 150751Z 33009KT 03/M02 A3017 RMK A01 T00271018  RH  072%=      5-min Rain = 0
KDO1 150752Z 33010KT 03/M02 A3017 RMK A01 T00271018  RH  072%=      5-min Rain = 0
KDO1 150753Z 34009KT 03/M02 A3017 RMK A01 T00271018  RH  072%=      5-min Rain = 0
KDO1 150754Z 33009KT 03/M02 A3017 RMK A01 T00271018  RH  072%=      5-min Rain = 0
KDO1 150755Z 33009KT 03/M02 A3017 RMK A01 T00271018  RH  072%=      5-min Rain = 0
KDO1 150756Z 33009KT 03/M02 A3017 RMK A01 T00271018  RH  072%=      5-min Rain = 0
KDO1 150757Z 33009KT 03/M02 A3017 RMK A01 T00271018  RH  072%=      5-min Rain = 0
KDO1 150758Z 33009KT 03/M02 A3017 RMK A01 T00271018  RH  072%=      5-min Rain = 0
KDO1 150759Z 33009KT 03/M02 A3017 RMK A01 T00271018  RH  072%=      5-min Rain = 0
KDO1 150800Z 33009KT 03/M02 A3017 RMK A01 T00271018  RH  072%=      5-min Rain = 0
KDO1 150801Z 33009KT 03/M02 A3017 RMK A01 T00271018  RH  072%=      5-min Rain = 0
KDO1 150802Z 33008KT 03/M02 A3017 RMK A01 T00271018  RH  072%=      5-min Rain = 0
KDO1 150803Z 33008KT 03/M02 A3017 RMK A01 T00271019  RH  072%=      5-min Rain = 0
KDO1 150804Z 33008KT 03/M02 A3017 RMK A01 T00271019  RH  072%=      5-min Rain = 0
KDO1 150805Z 33009KT 03/M02 A3017 RMK A01 T00271019  RH  072%=      5-min Rain = 0
KDO1 150806Z 33009KT 03/M02 A3017 RMK A01 T00271019  RH  072%=      5-min Rain = 0
KDO1 150807Z 34008KT 03/M02 A3017 RMK A01 T00271019  RH  072%=      5-min Rain = 0
KDO1 150808Z 34008KT 03/M02 A3017 RMK A01 T00261019  RH  072%=      5-min Rain = 0
KDO1 150809Z 33008KT 03/M02 A3017 RMK A01 T00271019  RH  072%=      5-min Rain = 0
KDO1 150810Z 33008KT 03/M02 A3017 RMK A01 T00261019  RH  072%=      5-min Rain = 0
KDO1 150811Z 33008KT 03/M02 A3017 RMK A01 T00261019  RH  072%=      5-min Rain = 0
KDO1 150812Z 33008KT 03/M02 A3017 RMK A01 T00261019  RH  072%=      5-min Rain = 0
KDO1 150813Z 33008KT 03/M02 A3017 RMK A01 T00261020  RH  072%=      5-min Rain = 0
KDO1 150814Z 33009KT 03/M02 A3017 RMK A01 T00251020  RH  072%=      5-min Rain = 0
KDO1 150815Z 33008KT 03/M02 A3017 RMK A01 T00251020  RH  072%=      5-min Rain = 0
KDO1 150816Z 33008KT 03/M02 A3017 RMK A01 T00251020  RH  072%=      5-min Rain = 0
KDO1 150817Z 33008KT 03/M02 A3017 RMK A01 T00251020  RH  072%=      5-min Rain = 0
KDO1 150818Z 34008KT 03/M02 A3017 RMK A01 T00251020  RH  072%=      5-min Rain = 0
KDO1 150819Z 34008KT 03/M02 A3017 RMK A01 T00251020  RH  072%=      5-min Rain = 0
KDO1 150820Z 34008KT 03/M02 A3017 RMK A01 T00251020  RH  072%=      5-min Rain = 0
KDO1 150821Z 34008KT 03/M02 A3017 RMK A01 T00251020  RH  072%=      5-min Rain = 0
KDO1 150822Z 33007KT 03/M02 A3017 RMK A01 T00251020  RH  072%=      5-min Rain = 0
KDO1 150823Z 34009KT 03/M02 A3017 RMK A01 T00251020  RH  072%=      5-min Rain = 0
KDO1 150824Z 34008KT 03/M02 A3017 RMK A01 T00251020  RH  072%=      5-min Rain = 0
KDO1 150825Z 33008KT 03/M02 A3017 RMK A01 T00251021  RH  072%=      5-min Rain = 0
KDO1 150826Z 34008KT 03/M02 A3017 RMK A01 T00251020  RH  072%=      5-min Rain = 0
KDO1 150827Z 34008KT 03/M02 A3018 RMK A01 T00251020  RH  072%=      5-min Rain = 0
KDO1 150828Z 33009KT 03/M02 A3018 RMK A01 T00251021  RH  072%=      5-min Rain = 0
KDO1 150829Z 33008KT 03/M02 A3018 RMK A01 T00251021  RH  072%=      5-min Rain = 0
KDO1 150830Z 33009KT 03/M02 A3018 RMK A01 T00251021  RH  072%=      5-min Rain = 0
KDO1 150831Z 33009KT 03/M02 A3018 RMK A01 T00251021  RH  072%=      5-min Rain = 0
KDO1 150832Z 33009KT 03/M02 A3018 RMK A01 T00251021  RH  072%=      5-min Rain = 0
KDO1 150833Z 33009KT 03/M02 A3018 RMK A01 T00251021  RH  072%=      5-min Rain = 0
KDO1 150834Z 33009KT 03/M02 A3018 RMK A01 T00251021  RH  072%=      5-min Rain = 0
KDO1 150835Z 33008KT 02/M02 A3018 RMK A01 T00241021  RH  072%=      5-min Rain = 0
KDO1 150836Z 33009KT 02/M02 A3018 RMK A01 T00241021  RH  072%=      5-min Rain = 0
KDO1 150837Z 33009KT 02/M02 A3018 RMK A01 T00241022  RH  072%=      5-min Rain = 0
KDO1 150838Z 33008KT 02/M02 A3018 RMK A01 T00241022  RH  072%=      5-min Rain = 0
KDO1 150839Z 33008KT 02/M02 A3017 RMK A01 T00241022  RH  072%=      5-min Rain = 0
KDO1 150840Z 33008KT 02/M02 A3017 RMK A01 T00241021  RH  072%=      5-min Rain = 0
KDO1 150841Z 33009KT 02/M02 A3017 RMK A01 T00231022  RH  072%=      5-min Rain = 0
KDO1 150842Z 33008KT 02/M02 A3018 RMK A01 T00241022  RH  072%=      5-min Rain = 0
KDO1 150843Z 33009KT 02/M02 A3018 RMK A01 T00241022  RH  072%=      5-min Rain = 0
KDO1 150844Z 32010KT 02/M02 A3018 RMK A01 T00231022  RH  072%=      5-min Rain = 0
KDO1 150845Z 33008KT 02/M02 A3018 RMK A01 T00231022  RH  072%=      5-min Rain = 0
KDO1 150846Z 33007KT 02/M02 A3017 RMK A01 T00221022  RH  072%=      5-min Rain = 0
KDO1 150847Z 32007KT 02/M02 A3017 RMK A01 T00221022  RH  073%=      5-min Rain = 0
KDO1 150848Z 33007KT 02/M02 A3017 RMK A01 T00211023  RH  073%=      5-min Rain = 0
KDO1 150849Z 33008KT 02/M02 A3017 RMK A01 T00211022  RH  073%=      5-min Rain = 0
KDO1 150850Z 32008KT 02/M02 A3017 RMK A01 T00211023  RH  073%=      5-min Rain = 0
KDO1 150851Z 32009KT 02/M02 A3017 RMK A01 T00211022  RH  073%=      5-min Rain = 0
KDO1 150852Z 32010KT 02/M02 A3017 RMK A01 T00211022  RH  073%=      5-min Rain = 0
KDO1 150853Z 31009KT 02/M02 A3017 RMK A01 T00211022  RH  073%=      5-min Rain = 0
KDO1 150854Z 32009KT 02/M02 A3017 RMK A01 T00201022  RH  073%=      5-min Rain = 0
KDO1 150855Z 32010KT 02/M02 A3017 RMK A01 T00201022  RH  073%=      5-min Rain = 0
KDO1 150856Z 32011KT 02/M02 A3017 RMK A01 T00201022  RH  073%=      5-min Rain = 0
KDO1 150857Z 32011KT 02/M02 A3017 RMK A01 T00211022  RH  073%=      5-min Rain = 0
KDO1 150858Z 32011KT 02/M02 A3017 RMK A01 T00211022  RH  073%=      5-min Rain = 0
KDO1 150859Z 32011KT 02/M02 A3017 RMK A01 T00211022  RH  073%=      5-min Rain = 0
KDO1 150900Z 32011KT 02/M02 A3017 RMK A01 T00221022  RH  073%=      5-min Rain = 0
KDO1 150901Z 32010KT 02/M02 A3017 RMK A01 T00211022  RH  073%=      5-min Rain = 0
KDO1 150902Z 32011KT 02/M02 A3017 RMK A01 T00211022  RH  073%=      5-min Rain = 0
KDO1 150903Z 32010KT 02/M02 A3017 RMK A01 T00211022  RH  073%=      5-min Rain = 0
KDO1 150904Z 32011KT 02/M02 A3017 RMK A01 T00211022  RH  073%=      5-min Rain = 0
KDO1 150905Z 32011KT 02/M02 A3017 RMK A01 T00211022  RH  073%=      5-min Rain = 0
KDO1 150906Z 32009KT 02/M02 A3017 RMK A01 T00211022  RH  073%=      5-min Rain = 0
KDO1 150907Z 32009KT 02/M02 A3017 RMK A01 T00211022  RH  073%=      5-min Rain = 0
KDO1 150908Z 32009KT 02/M02 A3017 RMK A01 T00211022  RH  073%=      5-min Rain = 0
KDO1 150909Z 32009KT 02/M02 A3017 RMK A01 T00211022  RH  073%=      5-min Rain = 0
KDO1 150910Z 31008KT 02/M02 A3017 RMK A01 T00211022  RH  073%=      5-min Rain = 0
KDO1 150911Z 32008KT 02/M02 A3017 RMK A01 T00211023  RH  073%=      5-min Rain = 0
KDO1 150912Z 32008KT 02/M02 A3017 RMK A01 T00211023  RH  073%=      5-min Rain = 0
KDO1 150913Z 32009KT 02/M02 A3017 RMK A01 T00201023  RH  073%=      5-min Rain = 0
KDO1 150914Z 32009KT 02/M02 A3017 RMK A01 T00201023  RH  073%=      5-min Rain = 0
KDO1 150915Z 32009KT 02/M02 A3017 RMK A01 T00201023  RH  073%=      5-min Rain = 0
KDO1 150916Z 32008KT 02/M02 A3017 RMK A01 T00201023  RH  073%=      5-min Rain = 0
KDO1 150917Z 32008KT 02/M02 A3017 RMK A01 T00201023  RH  073%=      5-min Rain = 0
KDO1 150918Z 32009KT 02/M02 A3017 RMK A01 T00201023  RH  073%=      5-min Rain = 0
KDO1 150919Z 32009KT 02/M02 A3017 RMK A01 T00201023  RH  073%=      5-min Rain = 0
KDO1 150920Z 32008KT 02/M02 A3017 RMK A01 T00191023  RH  073%=      5-min Rain = 0
KDO1 150921Z 32009KT 02/M02 A3017 RMK A01 T00191023  RH  074%=      5-min Rain = 0
KDO1 150922Z 32009KT 02/M02 A3017 RMK A01 T00191023  RH  074%=      5-min Rain = 0
KDO1 150923Z 32009KT 02/M02 A3017 RMK A01 T00191023  RH  074%=      5-min Rain = 0
KDO1 150924Z 32009KT 02/M02 A3018 RMK A01 T00191023  RH  074%=      5-min Rain = 0
KDO1 150925Z 32009KT 02/M02 A3018 RMK A01 T00191023  RH  074%=      5-min Rain = 0
KDO1 150926Z 33009KT 02/M02 A3018 RMK A01 T00191023  RH  074%=      5-min Rain = 0
KDO1 150927Z 32009KT 02/M02 A3018 RMK A01 T00181023  RH  074%=      5-min Rain = 0
KDO1 150928Z 32009KT 02/M02 A3018 RMK A01 T00181023  RH  074%=      5-min Rain = 0
KDO1 150929Z 32009KT 02/M02 A3018 RMK A01 T00181023  RH  074%=      5-min Rain = 0
KDO1 150930Z 32009KT 02/M02 A3018 RMK A01 T00181023  RH  074%=      5-min Rain = 0
KDO1 150931Z 32009KT 02/M02 A3018 RMK A01 T00181023  RH  074%=      5-min Rain = 0
KDO1 150932Z 32010KT 02/M02 A3018 RMK A01 T00181023  RH  074%=      5-min Rain = 0
KDO1 150933Z 32010KT 02/M02 A3018 RMK A01 T00181024  RH  074%=      5-min Rain = 0
KDO1 150934Z 32009KT 02/M02 A3018 RMK A01 T00181024  RH  074%=      5-min Rain = 0
KDO1 150935Z 32010KT 02/M02 A3018 RMK A01 T00181024  RH  074%=      5-min Rain = 0
KDO1 150936Z 32009KT 02/M02 A3018 RMK A01 T00191023  RH  074%=      5-min Rain = 0
KDO1 150937Z 32010KT 02/M02 A3018 RMK A01 T00191024  RH  074%=      5-min Rain = 0
KDO1 150938Z 32009KT 02/M02 A3018 RMK A01 T00191024  RH  074%=      5-min Rain = 0
KDO1 150939Z 32010KT 02/M02 A3018 RMK A01 T00181024  RH  074%=      5-min Rain = 0
KDO1 150940Z 32009KT 02/M02 A3018 RMK A01 T00191024  RH  074%=      5-min Rain = 0
KDO1 150941Z 32010KT 02/M02 A3018 RMK A01 T00181024  RH  074%=      5-min Rain = 0
KDO1 150942Z 32010KT 02/M02 A3018 RMK A01 T00181024  RH  074%=      5-min Rain = 0
KDO1 150943Z 32009KT 02/M02 A3018 RMK A01 T00191023  RH  074%=      5-min Rain = 0
KDO1 150944Z 32010KT 02/M02 A3018 RMK A01 T00191024  RH  074%=      5-min Rain = 0
KDO1 150945Z 32009KT 02/M02 A3018 RMK A01 T00181024  RH  074%=      5-min Rain = 0
KDO1 150946Z 32011KT 02/M02 A3018 RMK A01 T00181024  RH  074%=      5-min Rain = 0
KDO1 150947Z 32009KT 02/M02 A3018 RMK A01 T00181024  RH  074%=      5-min Rain = 0
KDO1 150948Z 32009KT 02/M02 A3018 RMK A01 T00181024  RH  074%=      5-min Rain = 0
KDO1 150949Z 32009KT 02/M02 A3018 RMK A01 T00181024  RH  074%=      5-min Rain = 0
KDO1 150950Z 32008KT 02/M02 A3018 RMK A01 T00181024  RH  074%=      5-min Rain = 0
KDO1 150951Z 32008KT 02/M02 A3018 RMK A01 T00181024  RH  074%=      5-min Rain = 0
KDO1 150952Z 32009KT 02/M02 A3018 RMK A01 T00181024  RH  074%=      5-min Rain = 0
KDO1 150953Z 32009KT 02/M02 A3018 RMK A01 T00171024  RH  074%=      5-min Rain = 0
KDO1 150954Z 31009KT 02/M03 A3018 RMK A01 T00171025  RH  074%=      5-min Rain = 0
KDO1 150955Z 31007KT 02/M03 A3018 RMK A01 T00171025  RH  074%=      5-min Rain = 0
KDO1 150956Z 32008KT 02/M03 A3018 RMK A01 T00171025  RH  074%=      5-min Rain = 0
KDO1 150957Z 31007KT 02/M03 A3018 RMK A01 T00171025  RH  074%=      5-min Rain = 0
KDO1 150958Z 31007KT 02/M03 A3019 RMK A01 T00171025  RH  074%=      5-min Rain = 0
KDO1 150959Z 32009KT 02/M03 A3019 RMK A01 T00171025  RH  074%=      5-min Rain = 0
KDO1 151000Z 31009KT 02/M03 A3019 RMK A01 T00161025  RH  074%=      5-min Rain = 0
KDO1 151001Z 32008KT 02/M03 A3019 RMK A01 T00161025  RH  074%=      5-min Rain = 0
KDO1 151002Z 31008KT 02/M03 A3019 RMK A01 T00161025  RH  074%=      5-min Rain = 0
KDO1 151003Z 32008KT 02/M03 A3019 RMK A01 T00161025  RH  074%=      5-min Rain = 0
KDO1 151004Z 32008KT 02/M03 A3019 RMK A01 T00161025  RH  074%=      5-min Rain = 0
KDO1 151005Z 32007KT 02/M03 A3019 RMK A01 T00161025  RH  074%=      5-min Rain = 0
KDO1 151006Z 31008KT 02/M03 A3019 RMK A01 T00151026  RH  074%=      5-min Rain = 0
KDO1 151007Z 32007KT 02/M03 A3019 RMK A01 T00151026  RH  074%=      5-min Rain = 0
KDO1 151008Z 32008KT 02/M03 A3019 RMK A01 T00151025  RH  074%=      5-min Rain = 0
KDO1 151009Z 31007KT 02/M03 A3019 RMK A01 T00151026  RH  074%=      5-min Rain = 0
KDO1 151010Z 31008KT 02/M03 A3019 RMK A01 T00151025  RH  075%=      5-min Rain = 0
KDO1 151011Z 32007KT 02/M03 A3019 RMK A01 T00151026  RH  075%=      5-min Rain = 0
KDO1 151012Z 31006KT 01/M03 A3019 RMK A01 T00141026  RH  075%=      5-min Rain = 0
KDO1 151013Z 32006KT 01/M03 A3019 RMK A01 T00141026  RH  075%=      5-min Rain = 0
KDO1 151014Z 31006KT 01/M03 A3019 RMK A01 T00141026  RH  075%=      5-min Rain = 0
KDO1 151015Z 32006KT 01/M03 A3019 RMK A01 T00131026  RH  075%=      5-min Rain = 0
KDO1 151016Z 32007KT 01/M03 A3019 RMK A01 T00131026  RH  075%=      5-min Rain = 0
KDO1 151017Z 32007KT 01/M03 A3019 RMK A01 T00141026  RH  075%=      5-min Rain = 0
KDO1 151018Z 32007KT 01/M03 A3019 RMK A01 T00131026  RH  075%=      5-min Rain = 0
KDO1 151019Z 32007KT 01/M03 A3019 RMK A01 T00131026  RH  075%=      5-min Rain = 0
KDO1 151020Z 32006KT 01/M03 A3019 RMK A01 T00141026  RH  075%=      5-min Rain = 0
KDO1 151021Z 32007KT 01/M03 A3019 RMK A01 T00131026  RH  075%=      5-min Rain = 0
KDO1 151022Z 32007KT 01/M03 A302 RMK A01 T00131026  RH  075%=      5-min Rain = 0
KDO1 151023Z 32007KT 01/M03 A302 RMK A01 T00141026  RH  075%=      5-min Rain = 0
KDO1 151024Z 32006KT 01/M03 A302 RMK A01 T00131026  RH  075%=      5-min Rain = 0
KDO1 151025Z 32006KT 01/M03 A302 RMK A01 T00131026  RH  075%=      5-min Rain = 0
KDO1 151026Z 32007KT 01/M03 A302 RMK A01 T00131026  RH  075%=      5-min Rain = 0
KDO1 151027Z 31007KT 01/M03 A302 RMK A01 T00131026  RH  075%=      5-min Rain = 0
KDO1 151028Z 32006KT 01/M03 A302 RMK A01 T00131026  RH  075%=      5-min Rain = 0
KDO1 151029Z 32006KT 01/M03 A302 RMK A01 T00131026  RH  075%=      5-min Rain = 0
KDO1 151030Z 31007KT 01/M03 A302 RMK A01 T00121026  RH  075%=      5-min Rain = 0
KDO1 151031Z 31007KT 01/M03 A302 RMK A01 T00121026  RH  075%=      5-min Rain = 0
KDO1 151032Z 32006KT 01/M03 A302 RMK A01 T00121027  RH  075%=      5-min Rain = 0
KDO1 151033Z 32007KT 01/M03 A302 RMK A01 T00121027  RH  076%=      5-min Rain = 0
KDO1 151034Z 31008KT 01/M03 A302 RMK A01 T00111027  RH  076%=      5-min Rain = 0
KDO1 151035Z 31007KT 01/M03 A302 RMK A01 T00121027  RH  076%=      5-min Rain = 0
KDO1 151036Z 31008KT 01/M03 A302 RMK A01 T00111027  RH  076%=      5-min Rain = 0
KDO1 151037Z 31009KT 01/M03 A302 RMK A01 T00121027  RH  076%=      5-min Rain = 0
KDO1 151038Z 31009KT 01/M03 A302 RMK A01 T00121027  RH  076%=      5-min Rain = 0
KDO1 151039Z 32010KT 01/M03 A302 RMK A01 T00121027  RH  076%=      5-min Rain = 0
KDO1 151040Z 32009KT 01/M03 A302 RMK A01 T00121026  RH  076%=      5-min Rain = 0
KDO1 151041Z 31010KT 01/M03 A302 RMK A01 T00121027  RH  076%=      5-min Rain = 0
KDO1 151042Z 32010KT 01/M03 A302 RMK A01 T00121027  RH  075%=      5-min Rain = 0
KDO1 151043Z 32010KT 01/M03 A302 RMK A01 T00121027  RH  075%=      5-min Rain = 0
KDO1 151044Z 32010KT 01/M03 A302 RMK A01 T00121027  RH  075%=      5-min Rain = 0
KDO1 151045Z 32009KT 01/M03 A302 RMK A01 T00121027  RH  075%=      5-min Rain = 0
KDO1 151046Z 32010KT 01/M03 A302 RMK A01 T00121027  RH  075%=      5-min Rain = 0
KDO1 151047Z 32010KT 01/M03 A302 RMK A01 T00121026  RH  075%=      5-min Rain = 0
KDO1 151048Z 32010KT 01/M03 A302 RMK A01 T00121027  RH  075%=      5-min Rain = 0
KDO1 151049Z 32010KT 01/M03 A302 RMK A01 T00121026  RH  075%=      5-min Rain = 0
KDO1 151050Z 32010KT 01/M03 A302 RMK A01 T00121026  RH  075%=      5-min Rain = 0
KDO1 151051Z 32010KT 01/M03 A302 RMK A01 T00121026  RH  075%=      5-min Rain = 0
KDO1 151052Z 32011KT 01/M03 A302 RMK A01 T00121026  RH  075%=      5-min Rain = 0
KDO1 151053Z 32009KT 01/M03 A302 RMK A01 T00131026  RH  075%=      5-min Rain = 0
KDO1 151054Z 32009KT 01/M03 A302 RMK A01 T00131026  RH  075%=      5-min Rain = 0
KDO1 151055Z 32010KT 01/M03 A302 RMK A01 T00131026  RH  075%=      5-min Rain = 0
KDO1 151056Z 32010KT 01/M03 A302 RMK A01 T00131026  RH  075%=      5-min Rain = 0
KDO1 151057Z 32010KT 01/M03 A302 RMK A01 T00131026  RH  075%=      5-min Rain = 0
KDO1 151058Z 32010KT 01/M03 A302 RMK A01 T00131026  RH  075%=      5-min Rain = 0
KDO1 151059Z 32010KT 01/M03 A302 RMK A01 T00131026  RH  075%=      5-min Rain = 0
KDO1 151100Z 32010KT 01/M03 A302 RMK A01 T00131026  RH  075%=      5-min Rain = 0
KDO1 151101Z 32010KT 01/M03 A302 RMK A01 T00141026  RH  075%=      5-min Rain = 0
KDO1 151102Z 32010KT 01/M03 A302 RMK A01 T00131026  RH  075%=      5-min Rain = 0
KDO1 151103Z 32010KT 01/M03 A302 RMK A01 T00131026  RH  075%=      5-min Rain = 0
KDO1 151104Z 32009KT 01/M03 A302 RMK A01 T00131026  RH  075%=      5-min Rain = 0
KDO1 151105Z 32009KT 01/M03 A302 RMK A01 T00131026  RH  075%=      5-min Rain = 0
KDO1 151106Z 32009KT 01/M03 A302 RMK A01 T00141026  RH  075%=      5-min Rain = 0
KDO1 151107Z 32010KT 01/M03 A302 RMK A01 T00131026  RH  075%=      5-min Rain = 0
KDO1 151108Z 32010KT 01/M03 A302 RMK A01 T00141026  RH  075%=      5-min Rain = 0
KDO1 151109Z 32010KT 01/M03 A302 RMK A01 T00141026  RH  075%=      5-min Rain = 0
KDO1 151110Z 32009KT 01/M03 A3021 RMK A01 T00141026  RH  074%=      5-min Rain = 0
KDO1 151111Z 32010KT 02/M03 A3021 RMK A01 T00151026  RH  074%=      5-min Rain = 0
KDO1 151112Z 32010KT 01/M03 A3021 RMK A01 T00141026  RH  074%=      5-min Rain = 0
KDO1 151113Z 32011KT 01/M03 A3021 RMK A01 T00141026  RH  074%=      5-min Rain = 0
KDO1 151114Z 32010KT 01/M03 A3021 RMK A01 T00141026  RH  074%=      5-min Rain = 0
KDO1 151115Z 32010KT 02/M03 A3021 RMK A01 T00151026  RH  074%=      5-min Rain = 0
KDO1 151116Z 32011KT 02/M03 A3021 RMK A01 T00151026  RH  074%=      5-min Rain = 0
KDO1 151117Z 32011KT 02/M03 A3021 RMK A01 T00151026  RH  074%=      5-min Rain = 0
KDO1 151118Z 32011KT 02/M03 A3021 RMK A01 T00151026  RH  074%=      5-min Rain = 0
KDO1 151119Z 32010KT 02/M03 A3021 RMK A01 T00151027  RH  074%=      5-min Rain = 0
KDO1 151120Z 32010KT 02/M03 A3021 RMK A01 T00161026  RH  074%=      5-min Rain = 0
KDO1 151121Z 32009KT 02/M03 A3021 RMK A01 T00161026  RH  074%=      5-min Rain = 0
KDO1 151122Z 32009KT 02/M03 A3021 RMK A01 T00161026  RH  074%=      5-min Rain = 0
KDO1 151123Z 32010KT 02/M03 A3021 RMK A01 T00151026  RH  074%=      5-min Rain = 0
KDO1 151124Z 32010KT 02/M03 A3021 RMK A01 T00151027  RH  074%=      5-min Rain = 0
KDO1 151125Z 32011KT 02/M03 A3021 RMK A01 T00151027  RH  074%=      5-min Rain = 0
KDO1 151126Z 32011KT 02/M03 A3021 RMK A01 T00151027  RH  074%=      5-min Rain = 0
KDO1 151127Z 32010KT 01/M03 A3021 RMK A01 T00141027  RH  074%=      5-min Rain = 0
KDO1 151128Z 32010KT 01/M03 A3021 RMK A01 T00141027  RH  074%=      5-min Rain = 0
KDO1 151129Z 33009KT 01/M03 A3021 RMK A01 T00141027  RH  074%=      5-min Rain = 0
KDO1 151130Z 33011KT 01/M03 A3021 RMK A01 T00131027  RH  074%=      5-min Rain = 0
KDO1 151131Z 33010KT 01/M03 A3021 RMK A01 T00131028  RH  074%=      5-min Rain = 0
KDO1 151132Z 33011KT 01/M03 A3021 RMK A01 T00131027  RH  074%=      5-min Rain = 0
KDO1 151133Z 33011KT 01/M03 A3021 RMK A01 T00131027  RH  074%=      5-min Rain = 0
KDO1 151134Z 33009KT 01/M03 A3021 RMK A01 T00131027  RH  074%=      5-min Rain = 0
KDO1 151135Z 33011KT 01/M03 A3021 RMK A01 T00131027  RH  075%=      5-min Rain = 0
KDO1 151136Z 32011KT 01/M03 A3021 RMK A01 T00131027  RH  075%=      5-min Rain = 0
KDO1 151137Z 33011KT 01/M03 A3021 RMK A01 T00131027  RH  075%=      5-min Rain = 0
KDO1 151138Z 33010KT 01/M03 A3021 RMK A01 T00131028  RH  074%=      5-min Rain = 0
KDO1 151139Z 32010KT 01/M03 A3021 RMK A01 T00131027  RH  074%=      5-min Rain = 0
KDO1 151140Z 33010KT 01/M03 A3021 RMK A01 T00131027  RH  074%=      5-min Rain = 0
KDO1 151141Z 32012KT 01/M03 A3021 RMK A01 T00131028  RH  075%=      5-min Rain = 0
KDO1 151142Z 32011KT 01/M03 A3021 RMK A01 T00131028  RH  075%=      5-min Rain = 0
KDO1 151143Z 32012KT 01/M03 A3021 RMK A01 T00131028  RH  074%=      5-min Rain = 0
KDO1 151144Z 32012KT 01/M03 A3021 RMK A01 T00131028  RH  074%=      5-min Rain = 0
KDO1 151145Z 33013KT 01/M03 A3021 RMK A01 T00131028  RH  074%=      5-min Rain = 0
KDO1 151146Z 32011KT 01/M03 A3021 RMK A01 T00131028  RH  074%=      5-min Rain = 0
KDO1 151147Z 33012KT 01/M03 A3021 RMK A01 T00141028  RH  074%=      5-min Rain = 0
KDO1 151148Z 33011KT 01/M03 A3021 RMK A01 T00131028  RH  074%=      5-min Rain = 0
KDO1 151149Z 33011KT 01/M03 A3021 RMK A01 T00131028  RH  074%=      5-min Rain = 0
KDO1 151150Z 33013KT 01/M03 A3021 RMK A01 T00121028  RH  074%=      5-min Rain = 0
KDO1 151151Z 33012KT 01/M03 A3021 RMK A01 T00121029  RH  074%=      5-min Rain = 0
KDO1 151152Z 32011KT 01/M03 A3021 RMK A01 T00121029  RH  074%=      5-min Rain = 0
KDO1 151153Z 33012KT 01/M03 A3021 RMK A01 T00121028  RH  074%=      5-min Rain = 0
KDO1 151154Z 32013KT 01/M03 A3021 RMK A01 T00121028  RH  074%=      5-min Rain = 0
KDO1 151155Z 33013KT 01/M03 A3021 RMK A01 T00121029  RH  074%=      5-min Rain = 0
KDO1 151156Z 32013KT 01/M03 A3021 RMK A01 T00121029  RH  074%=      5-min Rain = 0
KDO1 151157Z 32011KT 01/M03 A3021 RMK A01 T00121029  RH  074%=      5-min Rain = 0
KDO1 151158Z 33013KT 01/M03 A3021 RMK A01 T00121029  RH  074%=      5-min Rain = 0
KDO1 151159Z 32013KT 01/M03 A3021 RMK A01 T00111029  RH  074%=      5-min Rain = 0
KDO1 151200Z 33013KT 01/M03 A3021 RMK A01 T00111029  RH  074%=      5-min Rain = 0
KDO1 151201Z 33012KT 01/M03 A3021 RMK A01 T00111030  RH  074%=      5-min Rain = 0
KDO1 151202Z 33012KT 01/M03 A3021 RMK A01 T00111029  RH  074%=      5-min Rain = 0
KDO1 151203Z 33012KT 01/M03 A3021 RMK A01 T00101030  RH  075%=      5-min Rain = 0
KDO1 151204Z 33012KT 01/M03 A3021 RMK A01 T00111029  RH  075%=      5-min Rain = 0
KDO1 151205Z 33012KT 01/M03 A3021 RMK A01 T00111029  RH  075%=      5-min Rain = 0
KDO1 151206Z 33013KT 01/M03 A3021 RMK A01 T00111029  RH  075%=      5-min Rain = 0
KDO1 151207Z 32012KT 01/M03 A3021 RMK A01 T00111029  RH  075%=      5-min Rain = 0
KDO1 151208Z 33012KT 01/M03 A3021 RMK A01 T00111029  RH  075%=      5-min Rain = 0
KDO1 151209Z 33012KT 01/M03 A3021 RMK A01 T00111029  RH  075%=      5-min Rain = 0
KDO1 151210Z 33011KT 01/M03 A3021 RMK A01 T00111029  RH  075%=      5-min Rain = 0
KDO1 151211Z 33011KT 01/M03 A3021 RMK A01 T00101030  RH  075%=      5-min Rain = 0
KDO1 151212Z 33011KT 01/M03 A3021 RMK A01 T00101030  RH  075%=      5-min Rain = 0
KDO1 151213Z 33011KT 01/M03 A3021 RMK A01 T00101030  RH  075%=      5-min Rain = 0
KDO1 151214Z 33011KT 01/M03 A3021 RMK A01 T00091030  RH  075%=      5-min Rain = 0
KDO1 151215Z 33012KT 01/M03 A3021 RMK A01 T00091030  RH  075%=      5-min Rain = 0
KDO1 151216Z 33011KT 01/M03 A3021 RMK A01 T00091030  RH  075%=      5-min Rain = 0
KDO1 151217Z 33010KT 01/M03 A3021 RMK A01 T00081031  RH  075%=      5-min Rain = 0
KDO1 151218Z 33011KT 01/M03 A3021 RMK A01 T00081030  RH  075%=      5-min Rain = 0
KDO1 151219Z 33011KT 01/M03 A3021 RMK A01 T00081031  RH  076%=      5-min Rain = 0
KDO1 151220Z 33010KT 01/M03 A3021 RMK A01 T00071031  RH  076%=      5-min Rain = 0
KDO1 151221Z 33010KT 01/M03 A3021 RMK A01 T00061031  RH  076%=      5-min Rain = 0
KDO1 151222Z 33010KT 01/M03 A3021 RMK A01 T00061031  RH  076%=      5-min Rain = 0
KDO1 151223Z 33011KT 01/M03 A3021 RMK A01 T00061031  RH  076%=      5-min Rain = 0
KDO1 151224Z 33012KT 01/M03 A3021 RMK A01 T00061031  RH  076%=      5-min Rain = 0
KDO1 151225Z 33012KT 01/M03 A3021 RMK A01 T00061031  RH  076%=      5-min Rain = 0
KDO1 151226Z 33010KT 01/M03 A3021 RMK A01 T00061032  RH  076%=      5-min Rain = 0
KDO1 151227Z 33010KT 01/M03 A3021 RMK A01 T00051031  RH  076%=      5-min Rain = 0
KDO1 151228Z 33012KT 01/M03 A3021 RMK A01 T00051031  RH  076%=      5-min Rain = 0
KDO1 151229Z 33011KT 01/M03 A3021 RMK A01 T00051032  RH  076%=      5-min Rain = 0
KDO1 151230Z 33011KT 01/M03 A3021 RMK A01 T00051032  RH  076%=      5-min Rain = 0
KDO1 151231Z 33011KT 01/M03 A3021 RMK A01 T00051032  RH  076%=      5-min Rain = 0
KDO1 151232Z 33011KT 01/M03 A3021 RMK A01 T00051032  RH  076%=      5-min Rain = 0
KDO1 151233Z 33011KT 01/M03 A3021 RMK A01 T00051032  RH  076%=      5-min Rain = 0
KDO1 151234Z 33011KT 01/M03 A3021 RMK A01 T00051032  RH  076%=      5-min Rain = 0
KDO1 151235Z 33011KT 01/M03 A3022 RMK A01 T00051032  RH  076%=      5-min Rain = 0
KDO1 151236Z 33011KT 01/M03 A3022 RMK A01 T00051032  RH  076%=      5-min Rain = 0
KDO1 151237Z 33011KT 01/M03 A3022 RMK A01 T00051032  RH  076%=      5-min Rain = 0
KDO1 151238Z 33011KT 01/M03 A3022 RMK A01 T00051032  RH  076%=      5-min Rain = 0
KDO1 151239Z 33010KT 00/M03 A3022 RMK A01 T00041032  RH  076%=      5-min Rain = 0
KDO1 151240Z 33011KT 00/M03 A3022 RMK A01 T00041032  RH  076%=      5-min Rain = 0
KDO1 151241Z 33011KT 00/M03 A3022 RMK A01 T00041032  RH  076%=      5-min Rain = 0
KDO1 151242Z 34011KT 00/M03 A3022 RMK A01 T00041032  RH  076%=      5-min Rain = 0
KDO1 151243Z 33009KT 00/M03 A3022 RMK A01 T00041032  RH  076%=      5-min Rain = 0
KDO1 151244Z 33009KT 00/M03 A3022 RMK A01 T00041032  RH  076%=      5-min Rain = 0
KDO1 151245Z 33010KT 00/M03 A3022 RMK A01 T00041032  RH  077%=      5-min Rain = 0
KDO1 151246Z 33009KT 00/M03 A3022 RMK A01 T00041032  RH  077%=      5-min Rain = 0
KDO1 151247Z 33010KT 00/M03 A3022 RMK A01 T00041033  RH  077%=      5-min Rain = 0
KDO1 151248Z 33010KT 00/M03 A3022 RMK A01 T00041032  RH  077%=      5-min Rain = 0
KDO1 151249Z 33009KT 00/M03 A3022 RMK A01 T00041032  RH  077%=      5-min Rain = 0
KDO1 151250Z 33010KT 00/M03 A3022 RMK A01 T00041032  RH  077%=      5-min Rain = 0
KDO1 151251Z 33010KT 00/M03 A3022 RMK A01 T00041032  RH  077%=      5-min Rain = 0
KDO1 151252Z 33010KT 00/M03 A3022 RMK A01 T00031033  RH  077%=      5-min Rain = 0
KDO1 151253Z 33010KT 00/M03 A3022 RMK A01 T00031032  RH  077%=      5-min Rain = 0
KDO1 151254Z 33010KT 00/M03 A3022 RMK A01 T00031033  RH  077%=      5-min Rain = 0
KDO1 151255Z 34010KT 00/M03 A3022 RMK A01 T00031033  RH  077%=      5-min Rain = 0
KDO1 151256Z 33009KT 00/M03 A3022 RMK A01 T00031033  RH  077%=      5-min Rain = 0
KDO1 151257Z 33009KT 00/M03 A3022 RMK A01 T00031033  RH  077%=      5-min Rain = 0
KDO1 151258Z 33010KT 00/M03 A3022 RMK A01 T00031033  RH  077%=      5-min Rain = 0
KDO1 151259Z 33010KT 00/M03 A3023 RMK A01 T00031033  RH  077%=      5-min Rain = 0
KDO1 151300Z 33009KT 00/M03 A3023 RMK A01 T00031033  RH  077%=      5-min Rain = 0
KDO1 151301Z 34009KT 00/M03 A3023 RMK A01 T00031033  RH  077%=      5-min Rain = 0
KDO1 151302Z 34009KT 00/M03 A3023 RMK A01 T00031033  RH  077%=      5-min Rain = 0
KDO1 151303Z 33008KT 00/M03 A3023 RMK A01 T00031033  RH  077%=      5-min Rain = 0
KDO1 151304Z 33008KT 00/M03 A3023 RMK A01 T00031033  RH  077%=      5-min Rain = 0
KDO1 151305Z 34009KT 00/M03 A3023 RMK A01 T00031033  RH  077%=      5-min Rain = 0
KDO1 151306Z 34008KT 00/M03 A3023 RMK A01 T00031033  RH  077%=      5-min Rain = 0
KDO1 151307Z 34009KT 00/M03 A3023 RMK A01 T00031033  RH  077%=      5-min Rain = 0
KDO1 151308Z 34008KT 00/M03 A3023 RMK A01 T00031033  RH  077%=      5-min Rain = 0
KDO1 151309Z 34009KT 00/M03 A3023 RMK A01 T00031033  RH  077%=      5-min Rain = 0
KDO1 151310Z 34009KT 00/M03 A3023 RMK A01 T00031033  RH  077%=      5-min Rain = 0
KDO1 151311Z 34008KT 00/M03 A3023 RMK A01 T00031033  RH  077%=      5-min Rain = 0
KDO1 151312Z 34008KT 00/M03 A3023 RMK A01 T00031033  RH  076%=      5-min Rain = 0
KDO1 151313Z 34009KT 00/M03 A3023 RMK A01 T00041033  RH  076%=      5-min Rain = 0
KDO1 151314Z 34008KT 00/M03 A3023 RMK A01 T00041033  RH  076%=      5-min Rain = 0
KDO1 151315Z 34008KT 00/M03 A3023 RMK A01 T00041033  RH  076%=      5-min Rain = 0
KDO1 151316Z 34008KT 00/M03 A3023 RMK A01 T00041033  RH  076%=      5-min Rain = 0
KDO1 151317Z 34008KT 00/M03 A3023 RMK A01 T00041033  RH  076%=      5-min Rain = 0
KDO1 151318Z 34007KT 00/M03 A3023 RMK A01 T00041034  RH  076%=      5-min Rain = 0
KDO1 151319Z 34008KT 00/M03 A3023 RMK A01 T00041034  RH  076%=      5-min Rain = 0
KDO1 151320Z 34007KT 00/M03 A3023 RMK A01 T00041033  RH  076%=      5-min Rain = 0
KDO1 151321Z 34008KT 00/M03 A3023 RMK A01 T00041033  RH  076%=      5-min Rain = 0
KDO1 151322Z 33008KT 00/M03 A3023 RMK A01 T00031034  RH  076%=      5-min Rain = 0
KDO1 151323Z 34008KT 00/M03 A3023 RMK A01 T00031034  RH  076%=      5-min Rain = 0
KDO1 151324Z 33008KT 00/M03 A3023 RMK A01 T00041034  RH  076%=      5-min Rain = 0
KDO1 151325Z 34008KT 00/M03 A3023 RMK A01 T00041034  RH  076%=      5-min Rain = 0
KDO1 151326Z 34008KT 00/M03 A3023 RMK A01 T00041034  RH  076%=      5-min Rain = 0
KDO1 151327Z 34008KT 00/M03 A3023 RMK A01 T00041034  RH  076%=      5-min Rain = 0
KDO1 151328Z 34008KT 00/M03 A3023 RMK A01 T00041033  RH  076%=      5-min Rain = 0
KDO1 151329Z 34009KT 00/M03 A3023 RMK A01 T00041034  RH  076%=      5-min Rain = 0
KDO1 151330Z 34009KT 00/M03 A3023 RMK A01 T00041033  RH  076%=      5-min Rain = 0
KDO1 151331Z 34008KT 00/M03 A3023 RMK A01 T00041034  RH  076%=      5-min Rain = 0
KDO1 151332Z 34008KT 00/M03 A3023 RMK A01 T00041034  RH  076%=      5-min Rain = 0
KDO1 151333Z 34009KT 00/M03 A3023 RMK A01 T00041034  RH  076%=      5-min Rain = 0
KDO1 151334Z 34008KT 00/M03 A3023 RMK A01 T00041034  RH  076%=      5-min Rain = 0
KDO1 151335Z 34009KT 00/M04 A3023 RMK A01 T00041035  RH  076%=      5-min Rain = 0
KDO1 151336Z 34009KT 00/M03 A3023 RMK A01 T00041034  RH  076%=      5-min Rain = 0
KDO1 151337Z 34008KT 00/M03 A3023 RMK A01 T00041034  RH  076%=      5-min Rain = 0
KDO1 151338Z 34008KT 00/M03 A3023 RMK A01 T00041034  RH  076%=      5-min Rain = 0
KDO1 151339Z 34008KT 00/M03 A3023 RMK A01 T00041034  RH  076%=      5-min Rain = 0
KDO1 151340Z 34009KT 00/M03 A3023 RMK A01 T00041034  RH  076%=      5-min Rain = 0
KDO1 151341Z 34009KT 00/M03 A3023 RMK A01 T00041034  RH  076%=      5-min Rain = 0
KDO1 151342Z 34009KT 01/M03 A3023 RMK A01 T00051033  RH  076%=      5-min Rain = 0
KDO1 151343Z 34008KT 01/M03 A3023 RMK A01 T00051033  RH  076%=      5-min Rain = 0
KDO1 151344Z 34009KT 01/M03 A3023 RMK A01 T00051033  RH  076%=      5-min Rain = 0
KDO1 151345Z 34010KT 01/M03 A3023 RMK A01 T00061032  RH  075%=      5-min Rain = 0
KDO1 151346Z 34009KT 01/M03 A3023 RMK A01 T00061032  RH  075%=      5-min Rain = 0
KDO1 151347Z 34010KT 01/M03 A3023 RMK A01 T00071032  RH  075%=      5-min Rain = 0
KDO1 151348Z 34009KT 01/M03 A3023 RMK A01 T00081032  RH  075%=      5-min Rain = 0
KDO1 151349Z 34009KT 01/M03 A3023 RMK A01 T00091031  RH  074%=      5-min Rain = 0
KDO1 151350Z 34009KT 01/M03 A3023 RMK A01 T00091031  RH  074%=      5-min Rain = 0
KDO1 151351Z 34010KT 01/M03 A3024 RMK A01 T00091032  RH  074%=      5-min Rain = 0
KDO1 151352Z 34009KT 01/M03 A3024 RMK A01 T00091032  RH  074%=      5-min Rain = 0
KDO1 151353Z 34009KT 01/M03 A3024 RMK A01 T00091032  RH  074%=      5-min Rain = 0
KDO1 151354Z 34009KT 01/M03 A3024 RMK A01 T00091032  RH  074%=      5-min Rain = 0
KDO1 151355Z 34008KT 01/M03 A3024 RMK A01 T00091032  RH  074%=      5-min Rain = 0
KDO1 151356Z 34008KT 01/M03 A3024 RMK A01 T00091032  RH  074%=      5-min Rain = 0
KDO1 151357Z 34008KT 01/M03 A3024 RMK A01 T00091032  RH  074%=      5-min Rain = 0
KDO1 151358Z 34009KT 01/M03 A3024 RMK A01 T00091032  RH  074%=      5-min Rain = 0
KDO1 151359Z 34009KT 01/M03 A3024 RMK A01 T00091032  RH  074%=      5-min Rain = 0
KDO1 151400Z 34008KT 01/M03 A3024 RMK A01 T00091032  RH  074%=      5-min Rain = 0
KDO1 151401Z 34008KT 01/M03 A3024 RMK A01 T00101032  RH  074%=      5-min Rain = 0
KDO1 151402Z 34009KT 01/M03 A3024 RMK A01 T00101032  RH  074%=      5-min Rain = 0
KDO1 151403Z 34009KT 01/M03 A3024 RMK A01 T00101032  RH  074%=      5-min Rain = 0
KDO1 151404Z 34009KT 01/M03 A3024 RMK A01 T00101032  RH  074%=      5-min Rain = 0
KDO1 151405Z 34008KT 01/M03 A3024 RMK A01 T00111031  RH  073%=      5-min Rain = 0
KDO1 151406Z 34008KT 01/M03 A3024 RMK A01 T00111031  RH  073%=      5-min Rain = 0
KDO1 151407Z 35008KT 01/M03 A3024 RMK A01 T00121030  RH  073%=      5-min Rain = 0
KDO1 151408Z 34008KT 01/M03 A3024 RMK A01 T00121030  RH  073%=      5-min Rain = 0
KDO1 151409Z 35008KT 01/M03 A3024 RMK A01 T00131031  RH  073%=      5-min Rain = 0
KDO1 151410Z 34008KT 01/M03 A3024 RMK A01 T00131030  RH  073%=      5-min Rain = 0
KDO1 151411Z 35007KT 01/M03 A3024 RMK A01 T00141030  RH  073%=      5-min Rain = 0
KDO1 151412Z 34008KT 01/M03 A3024 RMK A01 T00141030  RH  073%=      5-min Rain = 0
KDO1 151413Z 35008KT 01/M03 A3024 RMK A01 T00141029  RH  073%=      5-min Rain = 0
KDO1 151414Z 35009KT 02/M03 A3024 RMK A01 T00151029  RH  072%=      5-min Rain = 0
KDO1 151415Z 35008KT 02/M03 A3025 RMK A01 T00151030  RH  072%=      5-min Rain = 0
KDO1 151416Z 35008KT 02/M03 A3025 RMK A01 T00161029  RH  072%=      5-min Rain = 0
KDO1 151417Z 35009KT 02/M03 A3025 RMK A01 T00161029  RH  072%=      5-min Rain = 0
KDO1 151418Z 35010KT 02/M03 A3025 RMK A01 T00171029  RH  072%=      5-min Rain = 0
KDO1 151419Z 35007KT 02/M03 A3025 RMK A01 T00171029  RH  072%=      5-min Rain = 0
KDO1 151420Z 35010KT 02/M03 A3025 RMK A01 T00181028  RH  072%=      5-min Rain = 0
KDO1 151421Z 35009KT 02/M03 A3025 RMK A01 T00181028  RH  071%=      5-min Rain = 0
KDO1 151422Z 34010KT 02/M03 A3025 RMK A01 T00191028  RH  071%=      5-min Rain = 0
KDO1 151423Z 35009KT 02/M03 A3025 RMK A01 T00191028  RH  071%=      5-min Rain = 0
KDO1 151424Z 35009KT 02/M03 A3025 RMK A01 T00201028  RH  071%=      5-min Rain = 0
KDO1 151425Z 35009KT 02/M03 A3025 RMK A01 T00201027  RH  071%=      5-min Rain = 0
KDO1 151426Z 35008KT 02/M03 A3025 RMK A01 T00201027  RH  071%=      5-min Rain = 0
KDO1 151427Z 35010KT 02/M03 A3025 RMK A01 T00211027  RH  071%=      5-min Rain = 0
KDO1 151428Z 34008KT 02/M03 A3025 RMK A01 T00211027  RH  071%=      5-min Rain = 0
KDO1 151429Z 35008KT 02/M03 A3025 RMK A01 T00221027  RH  070%=      5-min Rain = 0
KDO1 151430Z 35009KT 02/M03 A3025 RMK A01 T00221026  RH  070%=      5-min Rain = 0
KDO1 151431Z 35009KT 02/M03 A3025 RMK A01 T00221027  RH  070%=      5-min Rain = 0
KDO1 151432Z 35009KT 02/M03 A3025 RMK A01 T00231026  RH  070%=      5-min Rain = 0
KDO1 151433Z 35010KT 02/M03 A3025 RMK A01 T00231026  RH  070%=      5-min Rain = 0
KDO1 151434Z 35010KT 02/M03 A3025 RMK A01 T00241026  RH  069%=      5-min Rain = 0
KDO1 151435Z 34011KT 02/M03 A3025 RMK A01 T00241027  RH  069%=      5-min Rain = 0
KDO1 151436Z 35011KT 02/M03 A3025 RMK A01 T00241027  RH  069%=      5-min Rain = 0
KDO1 151437Z 35010KT 03/M03 A3025 RMK A01 T00251027  RH  069%=      5-min Rain = 0
KDO1 151438Z 35011KT 03/M03 A3025 RMK A01 T00251027  RH  069%=      5-min Rain = 0
KDO1 151439Z 35010KT 03/M03 A3025 RMK A01 T00261026  RH  068%=      5-min Rain = 0
KDO1 151440Z 35010KT 03/M03 A3025 RMK A01 T00261027  RH  068%=      5-min Rain = 0
KDO1 151441Z 35009KT 03/M03 A3025 RMK A01 T00261027  RH  068%=      5-min Rain = 0
KDO1 151442Z 35009KT 03/M03 A3025 RMK A01 T00271025  RH  068%=      5-min Rain = 0
KDO1 151443Z 35008KT 03/M03 A3025 RMK A01 T00281025  RH  068%=      5-min Rain = 0
KDO1 151444Z 34011KT 03/M02 A3025 RMK A01 T00281024  RH  068%=      5-min Rain = 0
KDO1 151445Z 34010KT 03/M03 A3025 RMK A01 T00281025  RH  068%=      5-min Rain = 0
KDO1 151446Z 34007KT 03/M03 A3025 RMK A01 T00291026  RH  068%=      5-min Rain = 0
KDO1 151447Z 34009KT 03/M03 A3025 RMK A01 T00291025  RH  068%=      5-min Rain = 0
KDO1 151448Z 34008KT 03/M02 A3026 RMK A01 T00301024  RH  068%=      5-min Rain = 0
KDO1 151449Z 34009KT 03/M02 A3026 RMK A01 T00301024  RH  068%=      5-min Rain = 0
KDO1 151450Z 34008KT 03/M02 A3026 RMK A01 T00301024  RH  068%=      5-min Rain = 0
KDO1 151451Z 34007KT 03/M02 A3026 RMK A01 T00311023  RH  068%=      5-min Rain = 0
KDO1 151452Z 34007KT 03/M02 A3026 RMK A01 T00321023  RH  068%=      5-min Rain = 0
KDO1 151453Z 34010KT 03/M02 A3026 RMK A01 T00321022  RH  068%=      5-min Rain = 0
KDO1 151454Z 34011KT 03/M02 A3026 RMK A01 T00331023  RH  067%=      5-min Rain = 0
KDO1 151455Z 35009KT 03/M02 A3026 RMK A01 T00331024  RH  066%=      5-min Rain = 0
KDO1 151456Z 34010KT 03/M02 A3026 RMK A01 T00331024  RH  066%=      5-min Rain = 0
KDO1 151457Z 34010KT 03/M02 A3026 RMK A01 T00331023  RH  066%=      5-min Rain = 0
KDO1 151458Z 34009KT 03/M02 A3026 RMK A01 T00341024  RH  066%=      5-min Rain = 0
KDO1 151459Z 34011KT 03/M03 A3026 RMK A01 T00341025  RH  066%=      5-min Rain = 0
KDO1 151500Z 34012KT 03/M03 A3026 RMK A01 T00341025  RH  065%=      5-min Rain = 0
KDO1 151501Z 34009KT 03/M03 A3026 RMK A01 T00341026  RH  065%=      5-min Rain = 0
KDO1 151502Z 34011KT 03/M03 A3026 RMK A01 T00341025  RH  065%=      5-min Rain = 0
KDO1 151503Z 34009KT 03/M03 A3026 RMK A01 T00341025  RH  065%=      5-min Rain = 0
KDO1 151504Z 34008KT 03/M02 A3026 RMK A01 T00341024  RH  066%=      5-min Rain = 0
KDO1 151505Z 34008KT 03/M02 A3026 RMK A01 T00341024  RH  066%=      5-min Rain = 0
KDO1 151506Z 34009KT 04/M02 A3026 RMK A01 T00351024  RH  065%=      5-min Rain = 0
KDO1 151507Z 34009KT 04/M02 A3026 RMK A01 T00361024  RH  065%=      5-min Rain = 0
KDO1 151508Z 34010KT 04/M02 A3026 RMK A01 T00361023  RH  065%=      5-min Rain = 0
KDO1 151509Z 34008KT 04/M02 A3026 RMK A01 T00361024  RH  065%=      5-min Rain = 0
KDO1 151510Z 33007KT 04/M02 A3026 RMK A01 T00361023  RH  065%=      5-min Rain = 0
KDO1 151511Z 34008KT 04/M02 A3026 RMK A01 T00371022  RH  065%=      5-min Rain = 0
KDO1 151512Z 34009KT 04/M02 A3026 RMK A01 T00381022  RH  065%=      5-min Rain = 0
KDO1 151513Z 34009KT 04/M02 A3026 RMK A01 T00381022  RH  065%=      5-min Rain = 0
KDO1 151514Z 34011KT 04/M02 A3026 RMK A01 T00381023  RH  064%=      5-min Rain = 0
KDO1 151515Z 34010KT 04/M02 A3026 RMK A01 T00391023  RH  064%=      5-min Rain = 0
KDO1 151516Z 35009KT 04/M02 A3026 RMK A01 T00391023  RH  064%=      5-min Rain = 0
KDO1 151517Z 34011KT 04/M02 A3026 RMK A01 T00391023  RH  064%=      5-min Rain = 0
KDO1 151518Z 35010KT 04/M02 A3026 RMK A01 T00401024  RH  063%=      5-min Rain = 0
KDO1 151519Z 34012KT 04/M02 A3026 RMK A01 T00401023  RH  063%=      5-min Rain = 0
KDO1 151520Z 34011KT 04/M02 A3026 RMK A01 T00411023  RH  063%=      5-min Rain = 0
KDO1 151521Z 35011KT 04/M02 A3026 RMK A01 T00411023  RH  063%=      5-min Rain = 0
KDO1 151522Z 34010KT 04/M02 A3026 RMK A01 T00411023  RH  063%=      5-min Rain = 0
KDO1 151523Z 34008KT 04/M02 A3026 RMK A01 T00411023  RH  063%=      5-min Rain = 0
KDO1 151524Z 34008KT 04/M02 A3026 RMK A01 T00421020  RH  064%=      5-min Rain = 0
KDO1 151525Z 35007KT 04/M02 A3026 RMK A01 T00431019  RH  064%=      5-min Rain = 0
KDO1 151526Z 34010KT 04/M02 A3026 RMK A01 T00441017  RH  064%=      5-min Rain = 0
KDO1 151527Z 34011KT 05/M02 A3026 RMK A01 T00451019  RH  063%=      5-min Rain = 0
KDO1 151528Z 35011KT 05/M02 A3026 RMK A01 T00451021  RH  063%=      5-min Rain = 0
KDO1 151529Z 34011KT 05/M02 A3026 RMK A01 T00451019  RH  063%=      5-min Rain = 0
KDO1 151530Z 34010KT 05/M02 A3026 RMK A01 T00451021  RH  063%=      5-min Rain = 0
KDO1 151531Z 35009KT 05/M02 A3026 RMK A01 T00451019  RH  063%=      5-min Rain = 0
KDO1 151532Z 34008KT 05/M02 A3026 RMK A01 T00451020  RH  063%=      5-min Rain = 0
KDO1 151533Z 34010KT 05/M02 A3026 RMK A01 T00461019  RH  063%=      5-min Rain = 0
KDO1 151534Z 34012KT 05/M02 A3026 RMK A01 T00471020  RH  062%=      5-min Rain = 0
KDO1 151535Z 34010KT 05/M02 A3026 RMK A01 T00471020  RH  062%=      5-min Rain = 0
KDO1 151536Z 34010KT 05/M02 A3026 RMK A01 T00471020  RH  062%=      5-min Rain = 0
KDO1 151537Z 36008KT 05/M02 A3026 RMK A01 T00481019  RH  062%=      5-min Rain = 0
KDO1 151538Z 35011KT 05/M02 A3026 RMK A01 T00481019  RH  062%=      5-min Rain = 0
KDO1 151539Z 34011KT 05/M02 A3026 RMK A01 T00491019  RH  061%=      5-min Rain = 0
KDO1 151540Z 35008KT 05/M02 A3026 RMK A01 T00491020  RH  061%=      5-min Rain = 0
KDO1 151541Z 35007KT 05/M02 A3026 RMK A01 T00501017  RH  062%=      5-min Rain = 0
KDO1 151542Z 36008KT 05/M02 A3026 RMK A01 T00521015  RH  062%=      5-min Rain = 0
KDO1 151543Z 36011KT 05/M02 A3026 RMK A01 T00531015  RH  061%=      5-min Rain = 0
KDO1 151544Z 36011KT 05/M02 A3026 RMK A01 T00531017  RH  060%=      5-min Rain = 0
KDO1 151545Z 35010KT 05/M02 A3027 RMK A01 T00521019  RH  060%=      5-min Rain = 0
KDO1 151546Z 35011KT 05/M02 A3027 RMK A01 T00521019  RH  060%=      5-min Rain = 0
KDO1 151547Z 35010KT 05/M02 A3027 RMK A01 T00521020  RH  060%=      5-min Rain = 0
KDO1 151548Z 34009KT 05/M02 A3027 RMK A01 T00521020  RH  060%=      5-min Rain = 0
KDO1 151549Z 34007KT 05/M02 A3027 RMK A01 T00521018  RH  060%=      5-min Rain = 0
KDO1 151550Z 35010KT 05/M02 A3027 RMK A01 T00531016  RH  061%=      5-min Rain = 0
KDO1 151551Z 34011KT 05/M02 A3027 RMK A01 T00541019  RH  060%=      5-min Rain = 0
KDO1 151552Z 34009KT 05/M02 A3027 RMK A01 T00541019  RH  059%=      5-min Rain = 0
KDO1 151553Z 35008KT 05/M02 A3027 RMK A01 T00541016  RH  061%=      5-min Rain = 0
KDO1 151554Z 35009KT 06/M02 A3027 RMK A01 T00551016  RH  060%=      5-min Rain = 0
KDO1 151555Z 34007KT 06/M02 A3027 RMK A01 T00551016  RH  060%=      5-min Rain = 0
KDO1 151556Z 34008KT 06/M01 A3027 RMK A01 T00571013  RH  061%=      5-min Rain = 0
KDO1 151557Z 00007KT 06/M01 A3027 RMK A01 T00571014  RH  060%=      5-min Rain = 0
KDO1 151558Z 36009KT 06/M01 A3027 RMK A01 T00581013  RH  060%=      5-min Rain = 0
KDO1 151559Z 35009KT 06/M02 A3027 RMK A01 T00591016  RH  058%=      5-min Rain = 0
KDO1 151600Z 34009KT 06/M02 A3027 RMK A01 T00581018  RH  058%=      5-min Rain = 0
KDO1 151601Z 35010KT 06/M02 A3027 RMK A01 T00581018  RH  058%=      5-min Rain = 0
KDO1 151602Z 35010KT 06/M02 A3027 RMK A01 T00581018  RH  058%=      5-min Rain = 0
KDO1 151603Z 34009KT 06/M02 A3027 RMK A01 T00571020  RH  058%=      5-min Rain = 0
KDO1 151604Z 35010KT 06/M02 A3027 RMK A01 T00571019  RH  058%=      5-min Rain = 0
KDO1 151605Z 36008KT 06/M02 A3027 RMK A01 T00571019  RH  058%=      5-min Rain = 0
KDO1 151606Z 35008KT 06/M02 A3027 RMK A01 T00581018  RH  058%=      5-min Rain = 0
KDO1 151607Z 36010KT 06/M02 A3027 RMK A01 T00581019  RH  058%=      5-min Rain = 0
KDO1 151608Z 35009KT 06/M02 A3027 RMK A01 T00591018  RH  058%=      5-min Rain = 0
KDO1 151609Z 36007KT 06/M02 A3027 RMK A01 T00591018  RH  058%=      5-min Rain = 0
KDO1 151610Z 35008KT 06/M02 A3027 RMK A01 T00601016  RH  058%=      5-min Rain = 0
KDO1 151611Z 35009KT 06/M02 A3027 RMK A01 T00611017  RH  057%=      5-min Rain = 0
KDO1 151612Z 01009KT 06/M02 A3027 RMK A01 T00611019  RH  056%=      5-min Rain = 0
KDO1 151613Z 00008KT 06/M02 A3027 RMK A01 T00611019  RH  056%=      5-min Rain = 0
KDO1 151614Z 00007KT 06/M02 A3027 RMK A01 T00611020  RH  056%=      5-min Rain = 0
KDO1 151615Z 35007KT 06/M02 A3027 RMK A01 T00611022  RH  055%=      5-min Rain = 0
KDO1 151616Z 35008KT 06/M02 A3027 RMK A01 T00601021  RH  056%=      5-min Rain = 0
KDO1 151617Z 35009KT 06/M02 A3027 RMK A01 T00611018  RH  057%=      5-min Rain = 0
KDO1 151618Z 01004KT 06/M02 A3027 RMK A01 T00621019  RH  056%=      5-min Rain = 0
KDO1 151619Z 35005KT 06/M02 A3027 RMK A01 T00631018  RH  056%=      5-min Rain = 0
KDO1 151620Z 35007KT 06/M02 A3027 RMK A01 T00641016  RH  057%=      5-min Rain = 0
KDO1 151621Z 36008KT 06/M02 A3026 RMK A01 T00641017  RH  056%=      5-min Rain = 0
KDO1 151622Z 35005KT 06/M02 A3026 RMK A01 T00641017  RH  056%=      5-min Rain = 0
KDO1 151623Z 34006KT 06/M02 A3026 RMK A01 T00641016  RH  056%=      5-min Rain = 0
KDO1 151624Z 35005KT 06/M02 A3026 RMK A01 T00641017  RH  056%=      5-min Rain = 0
KDO1 151625Z 01007KT 07/M02 A3026 RMK A01 T00651018  RH  055%=      5-min Rain = 0
KDO1 151626Z 00006KT 07/M02 A3026 RMK A01 T00651021  RH  054%=      5-min Rain = 0
KDO1 151627Z 35008KT 07/M02 A3026 RMK A01 T00651020  RH  054%=      5-min Rain = 0
KDO1 151628Z 35006KT 07/M02 A3026 RMK A01 T00661020  RH  054%=      5-min Rain = 0
KDO1 151629Z 35007KT 07/M02 A3026 RMK A01 T00661020  RH  054%=      5-min Rain = 0
KDO1 151630Z 36007KT 07/M02 A3026 RMK A01 T00671019  RH  054%=      5-min Rain = 0
KDO1 151631Z 35008KT 07/M02 A3026 RMK A01 T00671020  RH  054%=      5-min Rain = 0
KDO1 151632Z 34007KT 07/M02 A3026 RMK A01 T00671019  RH  054%=      5-min Rain = 0
KDO1 151633Z 34005KT 07/M02 A3026 RMK A01 T00681020  RH  054%=      5-min Rain = 0
KDO1 151634Z 35007KT 07/M02 A3026 RMK A01 T00671021  RH  053%=      5-min Rain = 0
KDO1 151635Z 36008KT 07/M02 A3026 RMK A01 T00671020  RH  054%=      5-min Rain = 0
KDO1 151636Z 00007KT 07/M02 A3026 RMK A01 T00681023  RH  053%=      5-min Rain = 0
KDO1 151637Z 35005KT 07/M02 A3026 RMK A01 T00681021  RH  053%=      5-min Rain = 0
KDO1 151638Z 34004KT 07/M02 A3026 RMK A01 T00691018  RH  054%=      5-min Rain = 0
KDO1 151639Z 33007KT 07/M02 A3026 RMK A01 T00711016  RH  054%=      5-min Rain = 0
KDO1 151640Z 33007KT 07/M02 A3026 RMK A01 T00721016  RH  053%=      5-min Rain = 0
KDO1 151641Z 34006KT 07/M02 A3026 RMK A01 T00731017  RH  053%=      5-min Rain = 0
KDO1 151642Z 32006KT 07/M02 A3026 RMK A01 T00731015  RH  054%=      5-min Rain = 0
KDO1 151643Z 35007KT 07/M01 A3026 RMK A01 T00741014  RH  054%=      5-min Rain = 0
KDO1 151644Z 00008KT 07/M02 A3026 RMK A01 T00741017  RH  052%=      5-min Rain = 0
KDO1 151645Z 01005KT 07/M02 A3026 RMK A01 T00741022  RH  051%=      5-min Rain = 0
KDO1 151646Z 01005KT 07/M02 A3026 RMK A01 T00731022  RH  051%=      5-min Rain = 0
KDO1 151647Z 00005KT 07/M02 A3026 RMK A01 T00731023  RH  051%=      5-min Rain = 0
KDO1 151648Z 35005KT 07/M02 A3026 RMK A01 T00741021  RH  051%=      5-min Rain = 0
KDO1 151649Z 34006KT 08/M02 A3026 RMK A01 T00751022  RH  050%=      5-min Rain = 0
KDO1 151650Z 34005KT 08/M02 A3026 RMK A01 T00751021  RH  050%=      5-min Rain = 0
KDO1 151651Z 33005KT 08/M02 A3026 RMK A01 T00761020  RH  051%=      5-min Rain = 0
KDO1 151652Z 35008KT 08/M02 A3026 RMK A01 T00761021  RH  050%=      5-min Rain = 0
KDO1 151653Z 35008KT 08/M03 A3026 RMK A01 T00761026  RH  048%=      5-min Rain = 0
KDO1 151654Z 36005KT 08/M03 A3026 RMK A01 T00761027  RH  048%=      5-min Rain = 0
KDO1 151655Z 33006KT 08/M03 A3026 RMK A01 T00761025  RH  049%=      5-min Rain = 0
KDO1 151656Z 34006KT 08/M02 A3026 RMK A01 T00761024  RH  049%=      5-min Rain = 0
KDO1 151657Z 34005KT 08/M02 A3026 RMK A01 T00771024  RH  049%=      5-min Rain = 0
KDO1 151658Z 00007KT 08/M03 A3026 RMK A01 T00771025  RH  048%=      5-min Rain = 0
KDO1 151659Z 01006KT 08/M03 A3026 RMK A01 T00761029  RH  047%=      5-min Rain = 0
KDO1 151700Z 01008KT 08/M03 A3026 RMK A01 T00771029  RH  047%=      5-min Rain = 0
KDO1 151701Z 01007KT 08/M03 A3026 RMK A01 T00761033  RH  046%=      5-min Rain = 0
KDO1 151702Z 02005KT 08/M03 A3026 RMK A01 T00761033  RH  046%=      5-min Rain = 0
KDO1 151703Z 35005KT 08/M03 A3026 RMK A01 T00761031  RH  046%=      5-min Rain = 0
KDO1 151704Z 34005KT 08/M03 A3026 RMK A01 T00781031  RH  046%=      5-min Rain = 0
KDO1 151705Z 33005KT 08/M03 A3026 RMK A01 T00781033  RH  046%=      5-min Rain = 0
KDO1 151706Z 01007KT 08/M03 A3026 RMK A01 T00781031  RH  046%=      5-min Rain = 0
KDO1 151707Z 02006KT 08/M04 A3027 RMK A01 T00791036  RH  044%=      5-min Rain = 0
KDO1 151708Z 04003KT 08/M04 A3026 RMK A01 T00781040  RH  043%=      5-min Rain = 0
KDO1 151709Z 04002KT 08/M04 A3026 RMK A01 T00771040  RH  043%=      5-min Rain = 0
KDO1 151710Z 02003KT 08/M04 A3026 RMK A01 T00771038  RH  044%=      5-min Rain = 0
KDO1 151711Z 02006KT 08/M03 A3026 RMK A01 T00791034  RH  045%=      5-min Rain = 0
KDO1 151712Z 03006KT 08/M04 A3026 RMK A01 T00801035  RH  044%=      5-min Rain = 0
KDO1 151713Z 03006KT 08/M04 A3027 RMK A01 T00811035  RH  044%=      5-min Rain = 0
KDO1 151714Z 03005KT 08/M04 A3027 RMK A01 T00811035  RH  044%=      5-min Rain = 0
KDO1 151715Z 03007KT 08/M04 A3027 RMK A01 T00811035  RH  044%=      5-min Rain = 0
KDO1 151716Z 02007KT 08/M04 A3027 RMK A01 T00811037  RH  043%=      5-min Rain = 0
KDO1 151717Z 35007KT 08/M03 A3026 RMK A01 T00821032  RH  044%=      5-min Rain = 0
KDO1 151718Z 33007KT 08/M03 A3026 RMK A01 T00841030  RH  044%=      5-min Rain = 0
KDO1 151719Z 33006KT 09/M03 A3026 RMK A01 T00851028  RH  045%=      5-min Rain = 0
KDO1 151720Z 34004KT 09/M03 A3026 RMK A01 T00861030  RH  044%=      5-min Rain = 0
KDO1 151721Z 34003KT 08/M04 A3026 RMK A01 T00841035  RH  043%=      5-min Rain = 0
KDO1 151722Z 32002KT 08/M04 A3026 RMK A01 T00831036  RH  043%=      5-min Rain = 0
KDO1 151723Z 36001KT 08/M04 A3026 RMK A01 T00831036  RH  043%=      5-min Rain = 0
KDO1 151724Z 34005KT 08/M04 A3026 RMK A01 T00831036  RH  043%=      5-min Rain = 0
KDO1 151725Z 32006KT 08/M04 A3026 RMK A01 T00831037  RH  043%=      5-min Rain = 0
KDO1 151726Z 34006KT 08/M04 A3026 RMK A01 T00831035  RH  043%=      5-min Rain = 0
KDO1 151727Z 36003KT 08/M04 A3026 RMK A01 T00821040  RH  042%=      5-min Rain = 0
KDO1 151728Z 34004KT 08/M04 A3026 RMK A01 T00811040  RH  042%=      5-min Rain = 0
KDO1 151729Z 35004KT 08/M04 A3026 RMK A01 T00821040  RH  042%=      5-min Rain = 0
KDO1 151730Z 36004KT 08/M04 A3026 RMK A01 T00831039  RH  042%=      5-min Rain = 0
KDO1 151731Z 32004KT 08/M04 A3026 RMK A01 T00831037  RH  042%=      5-min Rain = 0
KDO1 151732Z 32004KT 08/M04 A3026 RMK A01 T00841037  RH  042%=      5-min Rain = 0
KDO1 151733Z 32007KT 09/M03 A3026 RMK A01 T00851034  RH  043%=      5-min Rain = 0
KDO1 151734Z 31008KT 09/M04 A3026 RMK A01 T00861035  RH  043%=      5-min Rain = 0
KDO1 151735Z 29007KT 09/M04 A3026 RMK A01 T00851035  RH  043%=      5-min Rain = 0
KDO1 151736Z 29004KT 08/M04 A3026 RMK A01 T00841037  RH  042%=      5-min Rain = 0
KDO1 151737Z 29004KT 08/M03 A3026 RMK A01 T00841034  RH  043%=      5-min Rain = 0
KDO1 151738Z 32004KT 09/M03 A3026 RMK A01 T00861032  RH  043%=      5-min Rain = 0
KDO1 151739Z 32005KT 09/M03 A3026 RMK A01 T00881030  RH  044%=      5-min Rain = 0
KDO1 151740Z 35007KT 09/M03 A3026 RMK A01 T00881032  RH  043%=      5-min Rain = 0
KDO1 151741Z 35007KT 09/M03 A3026 RMK A01 T00891031  RH  043%=      5-min Rain = 0
KDO1 151742Z 35005KT 09/M03 A3026 RMK A01 T00891032  RH  042%=      5-min Rain = 0
KDO1 151743Z 35003KT 09/M03 A3026 RMK A01 T00881034  RH  042%=      5-min Rain = 0
KDO1 151744Z 30003KT 09/M03 A3026 RMK A01 T00871033  RH  043%=      5-min Rain = 0
KDO1 151745Z 31003KT 09/M04 A3026 RMK A01 T00881036  RH  042%=      5-min Rain = 0
KDO1 151746Z 33003KT 09/M03 A3026 RMK A01 T00881034  RH  042%=      5-min Rain = 0
KDO1 151747Z 32004KT 09/M03 A3026 RMK A01 T00891033  RH  042%=      5-min Rain = 0
KDO1 151748Z 31005KT 09/M03 A3026 RMK A01 T00891032  RH  042%=      5-min Rain = 0
KDO1 151749Z 32007KT 09/M03 A3026 RMK A01 T00901028  RH  044%=      5-min Rain = 0
KDO1 151750Z 33007KT 09/M03 A3026 RMK A01 T00911029  RH  043%=      5-min Rain = 0
KDO1 151751Z 33008KT 09/M03 A3026 RMK A01 T00911031  RH  042%=      5-min Rain = 0
KDO1 151752Z 33007KT 09/M03 A3026 RMK A01 T00901031  RH  042%=      5-min Rain = 0
KDO1 151753Z 31006KT 09/M03 A3026 RMK A01 T00901030  RH  043%=      5-min Rain = 0
KDO1 151754Z 31007KT 09/M03 A3026 RMK A01 T00891034  RH  042%=      5-min Rain = 0
KDO1 151755Z 32006KT 09/M03 A3026 RMK A01 T00891034  RH  042%=      5-min Rain = 0
KDO1 151756Z 31005KT 09/M03 A3026 RMK A01 T00891034  RH  042%=      5-min Rain = 0
KDO1 151757Z 31005KT 09/M04 A3026 RMK A01 T00891035  RH  042%=      5-min Rain = 0
KDO1 151758Z 31006KT 09/M04 A3026 RMK A01 T00891036  RH  041%=      5-min Rain = 0
KDO1 151759Z 32007KT 09/M04 A3026 RMK A01 T00891036  RH  041%=      5-min Rain = 0
KDO1 151800Z 33004KT 09/M04 A3026 RMK A01 T00891035  RH  041%=      5-min Rain = 0
KDO1 151801Z 33003KT 09/M04 A3026 RMK A01 T00891035  RH  042%=      5-min Rain = 0
KDO1 151802Z 33003KT 09/M03 A3025 RMK A01 T00891032  RH  042%=      5-min Rain = 0
KDO1 151803Z 32004KT 09/M03 A3025 RMK A01 T00921026  RH  044%=      5-min Rain = 0
KDO1 151804Z 34007KT 09/M03 A3025 RMK A01 T00941025  RH  043%=      5-min Rain = 0
KDO1 151805Z 01005KT 09/M03 A3025 RMK A01 T00941028  RH  042%=      5-min Rain = 0
KDO1 151806Z 01004KT 09/M03 A3025 RMK A01 T00941028  RH  042%=      5-min Rain = 0
KDO1 151807Z 34005KT 09/M03 A3025 RMK A01 T00941029  RH  042%=      5-min Rain = 0
KDO1 151808Z 36004KT 10/M03 A3025 RMK A01 T00951029  RH  042%=      5-min Rain = 0
KDO1 151809Z 32008KT 10/M03 A3025 RMK A01 T00951025  RH  043%=      5-min Rain = 0
KDO1 151810Z 34007KT 10/M03 A3025 RMK A01 T00961026  RH  042%=      5-min Rain = 0
KDO1 151811Z 34006KT 10/M03 A3025 RMK A01 T00961025  RH  043%=      5-min Rain = 0
KDO1 151812Z 00006KT 10/M03 A3025 RMK A01 T00951026  RH  042%=      5-min Rain = 0
KDO1 151813Z 01008KT 10/M03 A3025 RMK A01 T00951025  RH  043%=      5-min Rain = 0
KDO1 151814Z 00006KT 10/M03 A3025 RMK A01 T00951026  RH  042%=      5-min Rain = 0
KDO1 151815Z 36006KT 10/M02 A3025 RMK A01 T00951023  RH  043%=      5-min Rain = 0
KDO1 151816Z 35006KT 10/M03 A3025 RMK A01 T00961025  RH  042%=      5-min Rain = 0
KDO1 151817Z 01006KT 10/M03 A3025 RMK A01 T00961028  RH  042%=      5-min Rain = 0
KDO1 151818Z 00004KT 09/M03 A3025 RMK A01 T00941030  RH  042%=      5-min Rain = 0
KDO1 151819Z 01004KT 09/M03 A3025 RMK A01 T00941028  RH  042%=      5-min Rain = 0
KDO1 151820Z 31003KT 09/M03 A3025 RMK A01 T00941033  RH  041%=      5-min Rain = 0
KDO1 151821Z 30005KT 09/M03 A3025 RMK A01 T00941032  RH  041%=      5-min Rain = 0
KDO1 151822Z 30004KT 09/M03 A3025 RMK A01 T00941034  RH  040%=      5-min Rain = 0
KDO1 151823Z 29004KT 09/M03 A3025 RMK A01 T00941032  RH  041%=      5-min Rain = 0
KDO1 151824Z 33005KT 10/M03 A3025 RMK A01 T00961028  RH  042%=      5-min Rain = 0
KDO1 151825Z 35006KT 10/M03 A3025 RMK A01 T00961031  RH  041%=      5-min Rain = 0
KDO1 151826Z 31004KT 10/M03 A3025 RMK A01 T00951032  RH  041%=      5-min Rain = 0
KDO1 151827Z 34006KT 10/M03 A3025 RMK A01 T00951028  RH  042%=      5-min Rain = 0
KDO1 151828Z 35006KT 10/M02 A3025 RMK A01 T00971024  RH  043%=      5-min Rain = 0
KDO1 151829Z 36005KT 10/M03 A3025 RMK A01 T00981027  RH  041%=      5-min Rain = 0
KDO1 151830Z 34004KT 10/M03 A3025 RMK A01 T00971030  RH  041%=      5-min Rain = 0
KDO1 151831Z 30004KT 10/M03 A3025 RMK A01 T00961028  RH  042%=      5-min Rain = 0
KDO1 151832Z 32006KT 10/M03 A3024 RMK A01 T00971025  RH  042%=      5-min Rain = 0
KDO1 151833Z 34005KT 10/M02 A3025 RMK A01 T00991022  RH  043%=      5-min Rain = 0
KDO1 151834Z 00003KT 10/M03 A3025 RMK A01 T01001026  RH  041%=      5-min Rain = 0
KDO1 151835Z 35003KT 10/M03 A3024 RMK A01 T00991028  RH  041%=      5-min Rain = 0
KDO1 151836Z 34003KT 10/M03 A3024 RMK A01 T00981030  RH  041%=      5-min Rain = 0
KDO1 151837Z 33004KT 10/M03 A3024 RMK A01 T00971028  RH  042%=      5-min Rain = 0
KDO1 151838Z 34005KT 10/M03 A3024 RMK A01 T00971025  RH  042%=      5-min Rain = 0
KDO1 151839Z 34004KT 10/M02 A3024 RMK A01 T00981019  RH  044%=      5-min Rain = 0
KDO1 151840Z 35004KT 10/M02 A3024 RMK A01 T01001021  RH  043%=      5-min Rain = 0
KDO1 151841Z 31008KT 10/M02 A3024 RMK A01 T01011023  RH  042%=      5-min Rain = 0
KDO1 151842Z 32005KT 10/M02 A3024 RMK A01 T01001023  RH  042%=      5-min Rain = 0
KDO1 151843Z 35004KT 10/M02 A3024 RMK A01 T01011017  RH  044%=      5-min Rain = 0
KDO1 151844Z 35004KT 10/M02 A3024 RMK A01 T01021020  RH  042%=      5-min Rain = 0
KDO1 151845Z 34005KT 10/M02 A3024 RMK A01 T01021021  RH  042%=      5-min Rain = 0
KDO1 151846Z 33008KT 10/M02 A3024 RMK A01 T01021021  RH  042%=      5-min Rain = 0
KDO1 151847Z 33007KT 10/M02 A3024 RMK A01 T01011023  RH  042%=      5-min Rain = 0
KDO1 151848Z 33007KT 10/M03 A3024 RMK A01 T01001025  RH  042%=      5-min Rain = 0
KDO1 151849Z 34007KT 10/M03 A3024 RMK A01 T00991025  RH  042%=      5-min Rain = 0
KDO1 151850Z 35005KT 10/M03 A3024 RMK A01 T01001025  RH  042%=      5-min Rain = 0
KDO1 151851Z 36005KT 10/M03 A3024 RMK A01 T00991028  RH  041%=      5-min Rain = 0
KDO1 151852Z 03004KT 10/M03 A3023 RMK A01 T00981028  RH  041%=      5-min Rain = 0
KDO1 151853Z 36004KT 10/M03 A3023 RMK A01 T00991030  RH  040%=      5-min Rain = 0
KDO1 151854Z 30003KT 10/M03 A3023 RMK A01 T00991029  RH  040%=      5-min Rain = 0
KDO1 151855Z 32004KT 10/M03 A3023 RMK A01 T01001027  RH  041%=      5-min Rain = 0
KDO1 151856Z 32005KT 10/M03 A3023 RMK A01 T01011025  RH  041%=      5-min Rain = 0
KDO1 151857Z 31006KT 10/M02 A3023 RMK A01 T01021024  RH  041%=      5-min Rain = 0
KDO1 151858Z 33005KT 10/M03 A3023 RMK A01 T01031026  RH  040%=      5-min Rain = 0
KDO1 151859Z 32005KT 10/M03 A3023 RMK A01 T01031026  RH  040%=      5-min Rain = 0
KDO1 151900Z 31004KT 10/M03 A3023 RMK A01 T01031029  RH  040%=      5-min Rain = 0
KDO1 151901Z 34005KT 10/M03 A3023 RMK A01 T01021028  RH  040%=      5-min Rain = 0
KDO1 151902Z 34005KT 10/M02 A3023 RMK A01 T01021024  RH  041%=      5-min Rain = 0
KDO1 151903Z 34005KT 10/M03 A3023 RMK A01 T01031025  RH  041%=      5-min Rain = 0
KDO1 151904Z 35002KT 10/M03 A3023 RMK A01 T01031028  RH  040%=      5-min Rain = 0
KDO1 151905Z 36002KT 10/M03 A3023 RMK A01 T01021028  RH  040%=      5-min Rain = 0
KDO1 151906Z 34002KT 10/M03 A3022 RMK A01 T01021028  RH  040%=      5-min Rain = 0
KDO1 151907Z 32007KT 10/M02 A3022 RMK A01 T01021024  RH  041%=      5-min Rain = 0
KDO1 151908Z 32005KT 10/M02 A3022 RMK A01 T01041018  RH  042%=      5-min Rain = 0
KDO1 151909Z 31006KT 11/M02 A3022 RMK A01 T01061022  RH  041%=      5-min Rain = 0
KDO1 151910Z 33006KT 11/M03 A3022 RMK A01 T01061025  RH  040%=      5-min Rain = 0
KDO1 151911Z 32008KT 11/M02 A3022 RMK A01 T01051024  RH  040%=      5-min Rain = 0
KDO1 151912Z 31007KT 11/M02 A3022 RMK A01 T01051023  RH  041%=      5-min Rain = 0
KDO1 151913Z 32005KT 11/M03 A3022 RMK A01 T01051027  RH  039%=      5-min Rain = 0
KDO1 151914Z 31004KT 10/M03 A3022 RMK A01 T01031029  RH  039%=      5-min Rain = 0
KDO1 151915Z 32005KT 10/M03 A3022 RMK A01 T01031027  RH  040%=      5-min Rain = 0
KDO1 151916Z 32007KT 10/M03 A3022 RMK A01 T01041028  RH  040%=      5-min Rain = 0
KDO1 151917Z 32007KT 10/M03 A3022 RMK A01 T01041025  RH  040%=      5-min Rain = 0
KDO1 151918Z 31006KT 10/M03 A3022 RMK A01 T01041025  RH  040%=      5-min Rain = 0
KDO1 151919Z 30006KT 10/M03 A3022 RMK A01 T01041026  RH  040%=      5-min Rain = 0
KDO1 151920Z 32005KT 10/M03 A3022 RMK A01 T01041027  RH  040%=      5-min Rain = 0
KDO1 151921Z 31004KT 10/M02 A3022 RMK A01 T01041023  RH  041%=      5-min Rain = 0
KDO1 151922Z 30005KT 11/M02 A3021 RMK A01 T01051024  RH  040%=      5-min Rain = 0
KDO1 151923Z 33006KT 11/M02 A3021 RMK A01 T01061021  RH  041%=      5-min Rain = 0
KDO1 151924Z 33006KT 11/M03 A3021 RMK A01 T01081026  RH  039%=      5-min Rain = 0
KDO1 151925Z 32007KT 11/M03 A3021 RMK A01 T01071029  RH  038%=      5-min Rain = 0
KDO1 151926Z 31005KT 11/M03 A3021 RMK A01 T01071027  RH  039%=      5-min Rain = 0
KDO1 151927Z 32006KT 11/M03 A3021 RMK A01 T01071028  RH  039%=      5-min Rain = 0
KDO1 151928Z 32005KT 11/M03 A3021 RMK A01 T01081031  RH  038%=      5-min Rain = 0
KDO1 151929Z 31004KT 11/M03 A3021 RMK A01 T01081033  RH  037%=      5-min Rain = 0
KDO1 151930Z 34006KT 11/M03 A3021 RMK A01 T01071031  RH  038%=      5-min Rain = 0
KDO1 151931Z 33003KT 11/M03 A3021 RMK A01 T01071029  RH  038%=      5-min Rain = 0
KDO1 151932Z 31005KT 11/M03 A3021 RMK A01 T01081031  RH  038%=      5-min Rain = 0
KDO1 151933Z 32007KT 11/M03 A3021 RMK A01 T01091033  RH  037%=      5-min Rain = 0
KDO1 151934Z 31007KT 11/M03 A3021 RMK A01 T01081030  RH  038%=      5-min Rain = 0
KDO1 151935Z 32007KT 11/M03 A3021 RMK A01 T01101029  RH  038%=      5-min Rain = 0
KDO1 151936Z 32006KT 11/M03 A3021 RMK A01 T01101028  RH  038%=      5-min Rain = 0
KDO1 151937Z 32006KT 11/M03 A3021 RMK A01 T01101031  RH  037%=      5-min Rain = 0
KDO1 151938Z 32006KT 11/M04 A3021 RMK A01 T01091035  RH  036%=      5-min Rain = 0
KDO1 151939Z 32004KT 11/M04 A3021 RMK A01 T01081039  RH  035%=      5-min Rain = 0
KDO1 151940Z 29003KT 11/M04 A3021 RMK A01 T01071041  RH  035%=      5-min Rain = 0
KDO1 151941Z 28002KT 11/M04 A3021 RMK A01 T01071040  RH  035%=      5-min Rain = 0
KDO1 151942Z 26002KT 11/M04 A3021 RMK A01 T01071038  RH  036%=      5-min Rain = 0
KDO1 151943Z 31005KT 11/M04 A3021 RMK A01 T01081037  RH  036%=      5-min Rain = 0
KDO1 151944Z 32007KT 11/M03 A3021 RMK A01 T01091034  RH  036%=      5-min Rain = 0
KDO1 151945Z 31007KT 11/M03 A3021 RMK A01 T01091029  RH  038%=      5-min Rain = 0
KDO1 151946Z 31005KT 11/M03 A3021 RMK A01 T01101030  RH  037%=      5-min Rain = 0
KDO1 151947Z 31005KT 11/M03 A302 RMK A01 T01101031  RH  037%=      5-min Rain = 0
KDO1 151948Z 29005KT 11/M03 A302 RMK A01 T01101034  RH  036%=      5-min Rain = 0
KDO1 151949Z 29003KT 11/M04 A302 RMK A01 T01091035  RH  036%=      5-min Rain = 0
KDO1 151950Z 30003KT 11/M04 A302 RMK A01 T01091035  RH  036%=      5-min Rain = 0
KDO1 151951Z 31006KT 11/M03 A302 RMK A01 T01091034  RH  037%=      5-min Rain = 0
KDO1 151952Z 31006KT 11/M03 A302 RMK A01 T01101027  RH  038%=      5-min Rain = 0
KDO1 151953Z 33005KT 11/M03 A302 RMK A01 T01111028  RH  038%=      5-min Rain = 0
KDO1 151954Z 32003KT 11/M03 A302 RMK A01 T01121030  RH  037%=      5-min Rain = 0
KDO1 151955Z 31000KT 11/M03 A302 RMK A01 T01111032  RH  037%=      5-min Rain = 0
KDO1 151956Z 20000KT 11/M04 A302 RMK A01 T01111035  RH  036%=      5-min Rain = 0
KDO1 151957Z 02002KT 11/M04 A302 RMK A01 T01111035  RH  036%=      5-min Rain = 0
KDO1 151958Z 36001KT 11/M04 A302 RMK A01 T01111035  RH  036%=      5-min Rain = 0
KDO1 151959Z 35001KT 11/M04 A302 RMK A01 T01121036  RH  035%=      5-min Rain = 0
KDO1 152000Z 34002KT 11/M03 A302 RMK A01 T01121033  RH  036%=      5-min Rain = 0
KDO1 152001Z 28003KT 11/M03 A302 RMK A01 T01131031  RH  036%=      5-min Rain = 0
KDO1 152002Z 26003KT 11/M03 A302 RMK A01 T01141032  RH  036%=      5-min Rain = 0
KDO1 152003Z 29003KT 11/M03 A302 RMK A01 T01141030  RH  036%=      5-min Rain = 0
KDO1 152004Z 33003KT 12/M03 A302 RMK A01 T01151029  RH  036%=      5-min Rain = 0
KDO1 152005Z 01002KT 12/M03 A3019 RMK A01 T01161030  RH  036%=      5-min Rain = 0
KDO1 152006Z 25004KT 12/M03 A3019 RMK A01 T01161027  RH  037%=      5-min Rain = 0
KDO1 152007Z 26003KT 12/M03 A3019 RMK A01 T01171032  RH  035%=      5-min Rain = 0
KDO1 152008Z 27004KT 12/M03 A3019 RMK A01 T01171030  RH  036%=      5-min Rain = 0
KDO1 152009Z 25003KT 12/M03 A3019 RMK A01 T01171030  RH  036%=      5-min Rain = 0
KDO1 152010Z 28002KT 12/M03 A3019 RMK A01 T01171029  RH  036%=      5-min Rain = 0
KDO1 152011Z 27003KT 12/M03 A3019 RMK A01 T01181031  RH  035%=      5-min Rain = 0
KDO1 152012Z 26001KT 12/M03 A3019 RMK A01 T01161032  RH  035%=      5-min Rain = 0
KDO1 152013Z 28003KT 12/M03 A3019 RMK A01 T01171030  RH  036%=      5-min Rain = 0
KDO1 152014Z 29006KT 12/M03 A3019 RMK A01 T01181028  RH  036%=      5-min Rain = 0
KDO1 152015Z 28006KT 12/M03 A3019 RMK A01 T01191030  RH  035%=      5-min Rain = 0
KDO1 152016Z 28005KT 12/M03 A3019 RMK A01 T01191032  RH  035%=      5-min Rain = 0
KDO1 152017Z 28002KT 12/M04 A3019 RMK A01 T01171037  RH  034%=      5-min Rain = 0
KDO1 152018Z 26003KT 12/M04 A3019 RMK A01 T01161038  RH  034%=      5-min Rain = 0
KDO1 152019Z 27005KT 12/M04 A3019 RMK A01 T01161036  RH  034%=      5-min Rain = 0
KDO1 152020Z 29005KT 12/M04 A3019 RMK A01 T01161039  RH  033%=      5-min Rain = 0
KDO1 152021Z 29002KT 12/M04 A3019 RMK A01 T01151038  RH  034%=      5-min Rain = 0
KDO1 152022Z 26002KT 12/M04 A3018 RMK A01 T01161037  RH  034%=      5-min Rain = 0
KDO1 152023Z 29003KT 12/M04 A3018 RMK A01 T01171037  RH  034%=      5-min Rain = 0
KDO1 152024Z 29005KT 12/M04 A3018 RMK A01 T01181036  RH  034%=      5-min Rain = 0
KDO1 152025Z 29005KT 12/M04 A3018 RMK A01 T01181038  RH  033%=      5-min Rain = 0
KDO1 152026Z 28003KT 12/M04 A3018 RMK A01 T01171040  RH  033%=      5-min Rain = 0
KDO1 152027Z 28005KT 12/M04 A3018 RMK A01 T01171037  RH  034%=      5-min Rain = 0
KDO1 152028Z 31005KT 12/M04 A3018 RMK A01 T01171038  RH  033%=      5-min Rain = 0
KDO1 152029Z 32003KT 12/M04 A3018 RMK A01 T01171042  RH  033%=      5-min Rain = 0
KDO1 152030Z 30002KT 12/M04 A3018 RMK A01 T01171042  RH  033%=      5-min Rain = 0
KDO1 152031Z 28001KT 12/M04 A3018 RMK A01 T01161042  RH  033%=      5-min Rain = 0
KDO1 152032Z 33003KT 12/M04 A3018 RMK A01 T01171040  RH  033%=      5-min Rain = 0
KDO1 152033Z 33004KT 12/M04 A3018 RMK A01 T01181043  RH  032%=      5-min Rain = 0
KDO1 152034Z 33004KT 12/M05 A3018 RMK A01 T01171045  RH  032%=      5-min Rain = 0
KDO1 152035Z 32004KT 12/M05 A3018 RMK A01 T01181045  RH  032%=      5-min Rain = 0
KDO1 152036Z 34004KT 12/M05 A3018 RMK A01 T01181046  RH  031%=      5-min Rain = 0
KDO1 152037Z 35003KT 12/M05 A3018 RMK A01 T01191046  RH  031%=      5-min Rain = 0
KDO1 152038Z 34002KT 12/M05 A3018 RMK A01 T01181046  RH  031%=      5-min Rain = 0
KDO1 152039Z 34004KT 12/M04 A3018 RMK A01 T01191043  RH  032%=      5-min Rain = 0
KDO1 152040Z 33006KT 12/M04 A3018 RMK A01 T01201040  RH  032%=      5-min Rain = 0
KDO1 152041Z 33006KT 12/M04 A3018 RMK A01 T01191040  RH  033%=      5-min Rain = 0
KDO1 152042Z 35004KT 12/M04 A3018 RMK A01 T01191044  RH  032%=      5-min Rain = 0
KDO1 152043Z 35005KT 12/M04 A3018 RMK A01 T01181043  RH  032%=      5-min Rain = 0
KDO1 152044Z 00004KT 12/M04 A3017 RMK A01 T01171044  RH  032%=      5-min Rain = 0
KDO1 152045Z 00003KT 12/M05 A3017 RMK A01 T01161046  RH  032%=      5-min Rain = 0
KDO1 152046Z 30002KT 12/M05 A3017 RMK A01 T01161046  RH  032%=      5-min Rain = 0
KDO1 152047Z 26005KT 12/M05 A3017 RMK A01 T01171046  RH  032%=      5-min Rain = 0
KDO1 152048Z 28005KT 12/M05 A3017 RMK A01 T01181050  RH  031%=      5-min Rain = 0
KDO1 152049Z 26007KT 12/M05 A3017 RMK A01 T01181047  RH  031%=      5-min Rain = 0
KDO1 152050Z 25006KT 12/M04 A3017 RMK A01 T01211044  RH  031%=      5-min Rain = 0
KDO1 152051Z 28005KT 12/M05 A3017 RMK A01 T01221050  RH  030%=      5-min Rain = 0
KDO1 152052Z 27004KT 12/M05 A3017 RMK A01 T01201049  RH  030%=      5-min Rain = 0
KDO1 152053Z 30006KT 12/M05 A3017 RMK A01 T01211045  RH  031%=      5-min Rain = 0
KDO1 152054Z 29005KT 12/M04 A3017 RMK A01 T01221043  RH  031%=      5-min Rain = 0
KDO1 152055Z 30005KT 12/M05 A3017 RMK A01 T01221045  RH  031%=      5-min Rain = 0
KDO1 152056Z 29006KT 12/M05 A3017 RMK A01 T01221046  RH  031%=      5-min Rain = 0
KDO1 152057Z 29004KT 12/M05 A3017 RMK A01 T01211047  RH  031%=      5-min Rain = 0
KDO1 152058Z 32003KT 12/M04 A3017 RMK A01 T01211042  RH  032%=      5-min Rain = 0
KDO1 152059Z 01004KT 12/M04 A3017 RMK A01 T01221041  RH  032%=      5-min Rain = 0
KDO1 152100Z 34003KT 12/M04 A3017 RMK A01 T01231044  RH  031%=      5-min Rain = 0
KDO1 152101Z 33003KT 12/M04 A3017 RMK A01 T01221040  RH  032%=      5-min Rain = 0
KDO1 152102Z 31002KT 12/M04 A3017 RMK A01 T01221043  RH  031%=      5-min Rain = 0
KDO1 152103Z 33000KT 12/M05 A3017 RMK A01 T01221046  RH  031%=      5-min Rain = 0
KDO1 152104Z 28001KT 12/M05 A3016 RMK A01 T01211047  RH  031%=      5-min Rain = 0
KDO1 152105Z 27005KT 12/M04 A3016 RMK A01 T01211043  RH  031%=      5-min Rain = 0
KDO1 152106Z 28007KT 12/M04 A3016 RMK A01 T01231042  RH  031%=      5-min Rain = 0
KDO1 152107Z 28007KT 13/M05 A3016 RMK A01 T01251045  RH  030%=      5-min Rain = 0
KDO1 152108Z 29004KT 13/M05 A3016 RMK A01 T01251045  RH  030%=      5-min Rain = 0
KDO1 152109Z 29003KT 13/M05 A3016 RMK A01 T01251049  RH  029%=      5-min Rain = 0
KDO1 152110Z 29001KT 12/M05 A3016 RMK A01 T01241053  RH  029%=      5-min Rain = 0
KDO1 152111Z 23000KT 12/M05 A3016 RMK A01 T01221054  RH  029%=      5-min Rain = 0
KDO1 152112Z 30001KT 12/M05 A3016 RMK A01 T01221050  RH  030%=      5-min Rain = 0
KDO1 152113Z 32002KT 12/M04 A3016 RMK A01 T01241044  RH  030%=      5-min Rain = 0
KDO1 152114Z 30005KT 13/M05 A3016 RMK A01 T01261046  RH  030%=      5-min Rain = 0
KDO1 152115Z 30007KT 13/M04 A3016 RMK A01 T01261044  RH  030%=      5-min Rain = 0
KDO1 152116Z 30006KT 13/M04 A3016 RMK A01 T01261042  RH  031%=      5-min Rain = 0
KDO1 152117Z 29005KT 13/M04 A3016 RMK A01 T01261044  RH  030%=      5-min Rain = 0
KDO1 152118Z 29003KT 13/M05 A3016 RMK A01 T01251046  RH  030%=      5-min Rain = 0
KDO1 152119Z 29003KT 12/M05 A3016 RMK A01 T01241045  RH  030%=      5-min Rain = 0
KDO1 152120Z 30002KT 12/M04 A3016 RMK A01 T01241043  RH  031%=      5-min Rain = 0
KDO1 152121Z 29003KT 13/M04 A3016 RMK A01 T01251042  RH  031%=      5-min Rain = 0
KDO1 152122Z 27003KT 13/M04 A3016 RMK A01 T01261042  RH  031%=      5-min Rain = 0
KDO1 152123Z 29003KT 13/M04 A3016 RMK A01 T01261042  RH  031%=      5-min Rain = 0
KDO1 152124Z 30004KT 13/M04 A3016 RMK A01 T01271040  RH  031%=      5-min Rain = 0
KDO1 152125Z 29004KT 13/M04 A3016 RMK A01 T01281042  RH  030%=      5-min Rain = 0
KDO1 152126Z 30004KT 13/M04 A3016 RMK A01 T01281043  RH  030%=      5-min Rain = 0
KDO1 152127Z 31003KT 13/M05 A3016 RMK A01 T01261047  RH  030%=      5-min Rain = 0
KDO1 152128Z 31002KT 13/M05 A3016 RMK A01 T01251047  RH  030%=      5-min Rain = 0
KDO1 152129Z 32002KT 13/M04 A3016 RMK A01 T01251044  RH  030%=      5-min Rain = 0
KDO1 152130Z 29004KT 13/M04 A3016 RMK A01 T01251043  RH  031%=      5-min Rain = 0
KDO1 152131Z 30006KT 13/M04 A3016 RMK A01 T01251040  RH  031%=      5-min Rain = 0
KDO1 152132Z 29006KT 13/M04 A3016 RMK A01 T01251043  RH  031%=      5-min Rain = 0
KDO1 152133Z 29005KT 12/M04 A3016 RMK A01 T01241043  RH  031%=      5-min Rain = 0
KDO1 152134Z 26004KT 12/M04 A3016 RMK A01 T01241042  RH  031%=      5-min Rain = 0
KDO1 152135Z 28003KT 13/M04 A3016 RMK A01 T01261041  RH  031%=      5-min Rain = 0
KDO1 152136Z 28003KT 13/M04 A3016 RMK A01 T01261040  RH  031%=      5-min Rain = 0
KDO1 152137Z 28003KT 13/M04 A3016 RMK A01 T01271042  RH  030%=      5-min Rain = 0
KDO1 152138Z 28001KT 13/M04 A3016 RMK A01 T01261044  RH  030%=      5-min Rain = 0
KDO1 152139Z 33003KT 13/M04 A3016 RMK A01 T01251041  RH  031%=      5-min Rain = 0
KDO1 152140Z 33003KT 13/M03 A3016 RMK A01 T01271034  RH  032%=      5-min Rain = 0
KDO1 152141Z 33004KT 13/M03 A3016 RMK A01 T01281033  RH  032%=      5-min Rain = 0
KDO1 152142Z 31006KT 13/M03 A3015 RMK A01 T01291031  RH  033%=      5-min Rain = 0
KDO1 152143Z 32006KT 13/M03 A3015 RMK A01 T01281034  RH  032%=      5-min Rain = 0
KDO1 152144Z 29006KT 13/M04 A3015 RMK A01 T01271036  RH  032%=      5-min Rain = 0
KDO1 152145Z 29004KT 13/M04 A3015 RMK A01 T01261039  RH  031%=      5-min Rain = 0
KDO1 152146Z 29004KT 13/M04 A3015 RMK A01 T01251042  RH  031%=      5-min Rain = 0
KDO1 152147Z 27005KT 13/M04 A3015 RMK A01 T01251040  RH  031%=      5-min Rain = 0
KDO1 152148Z 26004KT 13/M04 A3015 RMK A01 T01251042  RH  031%=      5-min Rain = 0
KDO1 152149Z 25004KT 13/M04 A3015 RMK A01 T01251041  RH  031%=      5-min Rain = 0
KDO1 152150Z 23003KT 13/M04 A3015 RMK A01 T01271038  RH  031%=      5-min Rain = 0
KDO1 152151Z 24003KT 13/M04 A3015 RMK A01 T01281039  RH  031%=      5-min Rain = 0
KDO1 152152Z 29002KT 13/M04 A3015 RMK A01 T01291039  RH  031%=      5-min Rain = 0
KDO1 152153Z 32004KT 13/M04 A3015 RMK A01 T01281040  RH  031%=      5-min Rain = 0
KDO1 152154Z 32004KT 13/M04 A3015 RMK A01 T01281039  RH  031%=      5-min Rain = 0
KDO1 152155Z 32003KT 13/M04 A3015 RMK A01 T01291042  RH  030%=      5-min Rain = 0
KDO1 152156Z 34003KT 13/M04 A3015 RMK A01 T01281040  RH  031%=      5-min Rain = 0
KDO1 152157Z 33003KT 13/M04 A3015 RMK A01 T01291038  RH  031%=      5-min Rain = 0
KDO1 152158Z 35003KT 13/M04 A3015 RMK A01 T01291035  RH  032%=      5-min Rain = 0
KDO1 152159Z 36003KT 13/M04 A3015 RMK A01 T01291039  RH  031%=      5-min Rain = 0
KDO1 152200Z 35003KT 13/M04 A3015 RMK A01 T01281041  RH  031%=      5-min Rain = 0
KDO1 152201Z 36003KT 13/M04 A3015 RMK A01 T01271041  RH  031%=      5-min Rain = 0
KDO1 152202Z 03002KT 13/M04 A3015 RMK A01 T01261041  RH  031%=      5-min Rain = 0
KDO1 152203Z 05001KT 13/M04 A3015 RMK A01 T01261039  RH  031%=      5-min Rain = 0
KDO1 152204Z 05001KT 13/M04 A3015 RMK A01 T01261040  RH  031%=      5-min Rain = 0
KDO1 152205Z 08001KT 13/M04 A3015 RMK A01 T01271041  RH  031%=      5-min Rain = 0
KDO1 152206Z 09000KT 13/M04 A3015 RMK A01 T01271040  RH  031%=      5-min Rain = 0
KDO1 152207Z 02001KT 13/M04 A3015 RMK A01 T01271039  RH  031%=      5-min Rain = 0
KDO1 152208Z 35003KT 13/M04 A3014 RMK A01 T01281037  RH  032%=      5-min Rain = 0
KDO1 152209Z 29006KT 13/M03 A3014 RMK A01 T01291033  RH  032%=      5-min Rain = 0
KDO1 152210Z 24004KT 13/M04 A3014 RMK A01 T01291036  RH  032%=      5-min Rain = 0
KDO1 152211Z 24005KT 13/M04 A3014 RMK A01 T01291036  RH  031%=      5-min Rain = 0
KDO1 152212Z 25004KT 13/M04 A3014 RMK A01 T01301037  RH  031%=      5-min Rain = 0
KDO1 152213Z 27004KT 13/M04 A3014 RMK A01 T01311035  RH  031%=      5-min Rain = 0
KDO1 152214Z 27005KT 13/M04 A3014 RMK A01 T01321037  RH  031%=      5-min Rain = 0
KDO1 152215Z 29007KT 13/M04 A3014 RMK A01 T01321040  RH  030%=      5-min Rain = 0
KDO1 152216Z 28007KT 13/M04 A3014 RMK A01 T01301042  RH  030%=      5-min Rain = 0
KDO1 152217Z 29005KT 13/M04 A3014 RMK A01 T01301042  RH  030%=      5-min Rain = 0
KDO1 152218Z 30005KT 13/M04 A3014 RMK A01 T01291044  RH  030%=      5-min Rain = 0
KDO1 152219Z 32003KT 13/M04 A3014 RMK A01 T01281043  RH  030%=      5-min Rain = 0
KDO1 152220Z 27002KT 13/M04 A3014 RMK A01 T01281041  RH  030%=      5-min Rain = 0
KDO1 152221Z 25003KT 13/M04 A3014 RMK A01 T01291041  RH  030%=      5-min Rain = 0
KDO1 152222Z 30003KT 13/M04 A3014 RMK A01 T01301042  RH  030%=      5-min Rain = 0
KDO1 152223Z 33003KT 13/M04 A3014 RMK A01 T01291044  RH  030%=      5-min Rain = 0
KDO1 152224Z 34002KT 13/M05 A3014 RMK A01 T01281045  RH  030%=      5-min Rain = 0
KDO1 152225Z 34002KT 13/M05 A3014 RMK A01 T01271046  RH  030%=      5-min Rain = 0
KDO1 152226Z 31002KT 13/M05 A3014 RMK A01 T01271045  RH  030%=      5-min Rain = 0
KDO1 152227Z 34004KT 13/M04 A3014 RMK A01 T01271041  RH  031%=      5-min Rain = 0
KDO1 152228Z 35005KT 13/M04 A3014 RMK A01 T01281040  RH  031%=      5-min Rain = 0
KDO1 152229Z 34002KT 13/M04 A3014 RMK A01 T01271042  RH  030%=      5-min Rain = 0
KDO1 152230Z 32001KT 13/M04 A3014 RMK A01 T01271043  RH  030%=      5-min Rain = 0
KDO1 152231Z 29001KT 13/M04 A3014 RMK A01 T01271042  RH  030%=      5-min Rain = 0
KDO1 152232Z 31000KT 13/M04 A3014 RMK A01 T01281041  RH  031%=      5-min Rain = 0
KDO1 152233Z 33000KT 13/M04 A3013 RMK A01 T01291043  RH  030%=      5-min Rain = 0
KDO1 152234Z 31002KT 13/M04 A3013 RMK A01 T01301041  RH  030%=      5-min Rain = 0
KDO1 152235Z 31003KT 13/M04 A3013 RMK A01 T01311036  RH  031%=      5-min Rain = 0
KDO1 152236Z 29005KT 13/M04 A3013 RMK A01 T01311038  RH  031%=      5-min Rain = 0
KDO1 152237Z 30006KT 13/M04 A3013 RMK A01 T01311041  RH  030%=      5-min Rain = 0
KDO1 152238Z 30006KT 13/M04 A3013 RMK A01 T01301041  RH  030%=      5-min Rain = 0
KDO1 152239Z 30005KT 13/M04 A3013 RMK A01 T01291042  RH  030%=      5-min Rain = 0
KDO1 152240Z 29003KT 13/M04 A3013 RMK A01 T01291044  RH  030%=      5-min Rain = 0
KDO1 152241Z 28003KT 13/M04 A3013 RMK A01 T01291044  RH  030%=      5-min Rain = 0
KDO1 152242Z 30004KT 13/M04 A3013 RMK A01 T01291044  RH  030%=      5-min Rain = 0
KDO1 152243Z 32004KT 13/M04 A3013 RMK A01 T01301043  RH  030%=      5-min Rain = 0
KDO1 152244Z 32004KT 13/M04 A3013 RMK A01 T01301043  RH  030%=      5-min Rain = 0
KDO1 152245Z 30003KT 13/M04 A3013 RMK A01 T01301043  RH  030%=      5-min Rain = 0
KDO1 152246Z 29004KT 13/M04 A3013 RMK A01 T01301043  RH  030%=      5-min Rain = 0
KDO1 152247Z 31003KT 13/M04 A3013 RMK A01 T01301043  RH  030%=      5-min Rain = 0
KDO1 152248Z 29003KT 13/M04 A3013 RMK A01 T01301043  RH  030%=      5-min Rain = 0
KDO1 152249Z 28003KT 13/M04 A3013 RMK A01 T01311043  RH  030%=      5-min Rain = 0
KDO1 152250Z 28003KT 13/M04 A3013 RMK A01 T01311041  RH  030%=      5-min Rain = 0
KDO1 152251Z 28003KT 13/M04 A3013 RMK A01 T01311041  RH  030%=      5-min Rain = 0
KDO1 152252Z 29003KT 13/M04 A3013 RMK A01 T01321043  RH  029%=      5-min Rain = 0
KDO1 152253Z 28002KT 13/M04 A3013 RMK A01 T01311044  RH  029%=      5-min Rain = 0
KDO1 152254Z 27002KT 13/M04 A3013 RMK A01 T01311043  RH  030%=      5-min Rain = 0
KDO1 152255Z 27001KT 13/M04 A3013 RMK A01 T01311044  RH  029%=      5-min Rain = 0
KDO1 152256Z 25002KT 13/M04 A3013 RMK A01 T01311042  RH  030%=      5-min Rain = 0
KDO1 152257Z 24002KT 13/M04 A3013 RMK A01 T01321042  RH  030%=      5-min Rain = 0
KDO1 152258Z 24002KT 13/M04 A3013 RMK A01 T01331041  RH  030%=      5-min Rain = 0
KDO1 152259Z 28002KT 13/M04 A3013 RMK A01 T01331041  RH  030%=      5-min Rain = 0
KDO1 152300Z 28003KT 13/M04 A3013 RMK A01 T01331041  RH  030%=      5-min Rain = 0
KDO1 152301Z 27002KT 13/M04 A3013 RMK A01 T01331042  RH  029%=      5-min Rain = 0
KDO1 152302Z 27002KT 13/M04 A3013 RMK A01 T01321041  RH  030%=      5-min Rain = 0
KDO1 152303Z 26005KT 13/M04 A3013 RMK A01 T01321039  RH  030%=      5-min Rain = 0
KDO1 152304Z 26003KT 13/M04 A3012 RMK A01 T01331038  RH  030%=      5-min Rain = 0
KDO1 152305Z 24003KT 13/M04 A3012 RMK A01 T01331039  RH  030%=      5-min Rain = 0
KDO1 152306Z 25003KT 13/M04 A3012 RMK A01 T01331040  RH  030%=      5-min Rain = 0
KDO1 152307Z 26003KT 13/M04 A3012 RMK A01 T01331040  RH  030%=      5-min Rain = 0
KDO1 152308Z 26003KT 13/M04 A3012 RMK A01 T01331042  RH  029%=      5-min Rain = 0
KDO1 152309Z 26004KT 13/M04 A3012 RMK A01 T01321042  RH  029%=      5-min Rain = 0
KDO1 152310Z 26003KT 13/M04 A3012 RMK A01 T01321042  RH  030%=      5-min Rain = 0
KDO1 152311Z 24003KT 13/M04 A3012 RMK A01 T01311042  RH  030%=      5-min Rain = 0
KDO1 152312Z 23003KT 13/M04 A3012 RMK A01 T01311041  RH  030%=      5-min Rain = 0
KDO1 152313Z 21003KT 13/M04 A3012 RMK A01 T01311041  RH  030%=      5-min Rain = 0
KDO1 152314Z 21002KT 13/M04 A3012 RMK A01 T01321041  RH  030%=      5-min Rain = 0
KDO1 152315Z 22002KT 13/M04 A3012 RMK A01 T01321041  RH  030%=      5-min Rain = 0
KDO1 152316Z 20003KT 13/M04 A3012 RMK A01 T01321041  RH  030%=      5-min Rain = 0
KDO1 152317Z 21002KT 13/M04 A3012 RMK A01 T01321040  RH  030%=      5-min Rain = 0
KDO1 152318Z 22004KT 13/M04 A3012 RMK A01 T01331038  RH  030%=      5-min Rain = 0
KDO1 152319Z 23003KT 13/M04 A3012 RMK A01 T01341039  RH  030%=      5-min Rain = 0
KDO1 152320Z 22001KT 13/M04 A3012 RMK A01 T01341040  RH  030%=      5-min Rain = 0
KDO1 152321Z 23002KT 13/M04 A3012 RMK A01 T01341039  RH  030%=      5-min Rain = 0
KDO1 152322Z 25003KT 13/M04 A3012 RMK A01 T01341038  RH  030%=      5-min Rain = 0
KDO1 152323Z 24002KT 13/M04 A3012 RMK A01 T01341039  RH  030%=      5-min Rain = 0
KDO1 152324Z 24003KT 13/M04 A3012 RMK A01 T01341040  RH  030%=      5-min Rain = 0
KDO1 152325Z 25003KT 13/M04 A3012 RMK A01 T01331040  RH  030%=      5-min Rain = 0
KDO1 152326Z 24003KT 13/M04 A3012 RMK A01 T01331041  RH  030%=      5-min Rain = 0
KDO1 152327Z 22004KT 13/M04 A3012 RMK A01 T01331037  RH  031%=      5-min Rain = 0
KDO1 152328Z 24005KT 13/M04 A3012 RMK A01 T01331037  RH  031%=      5-min Rain = 0
KDO1 152329Z 23005KT 13/M04 A3012 RMK A01 T01331037  RH  031%=      5-min Rain = 0
KDO1 152330Z 24004KT 13/M04 A3012 RMK A01 T01331036  RH  031%=      5-min Rain = 0
KDO1 152331Z 24004KT 13/M03 A3012 RMK A01 T01321034  RH  031%=      5-min Rain = 0
KDO1 152332Z 24004KT 13/M03 A3012 RMK A01 T01331033  RH  031%=      5-min Rain = 0
KDO1 152333Z 26004KT 13/M04 A3012 RMK A01 T01321036  RH  031%=      5-min Rain = 0
KDO1 152334Z 27003KT 13/M04 A3012 RMK A01 T01311036  RH  031%=      5-min Rain = 0
KDO1 152335Z 28003KT 13/M04 A3012 RMK A01 T01311040  RH  030%=      5-min Rain = 0
KDO1 152336Z 29003KT 13/M04 A3012 RMK A01 T01301038  RH  031%=      5-min Rain = 0
KDO1 152337Z 28002KT 13/M04 A3012 RMK A01 T01301038  RH  031%=      5-min Rain = 0
KDO1 152338Z 28003KT 13/M04 A3012 RMK A01 T01301038  RH  031%=      5-min Rain = 0
KDO1 152339Z 26004KT 13/M04 A3012 RMK A01 T01301037  RH  031%=      5-min Rain = 0
KDO1 152340Z 26003KT 13/M04 A3012 RMK A01 T01301036  RH  031%=      5-min Rain = 0
KDO1 152341Z 27002KT 13/M03 A3012 RMK A01 T01301033  RH  032%=      5-min Rain = 0
KDO1 152342Z 28004KT 13/M03 A3012 RMK A01 T01311033  RH  032%=      5-min Rain = 0
KDO1 152343Z 27004KT 13/M04 A3012 RMK A01 T01311035  RH  031%=      5-min Rain = 0
KDO1 152344Z 28004KT 13/M04 A3012 RMK A01 T01311035  RH  032%=      5-min Rain = 0
KDO1 152345Z 29004KT 13/M03 A3012 RMK A01 T01301034  RH  032%=      5-min Rain = 0
KDO1 152346Z 28005KT 13/M03 A3012 RMK A01 T01301033  RH  032%=      5-min Rain = 0
KDO1 152347Z 29003KT 13/M04 A3011 RMK A01 T01291036  RH  032%=      5-min Rain = 0
KDO1 152348Z 28003KT 13/M03 A3011 RMK A01 T01291034  RH  032%=      5-min Rain = 0
KDO1 152349Z 28002KT 13/M04 A3011 RMK A01 T01281035  RH  032%=      5-min Rain = 0
KDO1 152350Z 28003KT 13/M04 A3011 RMK A01 T01281037  RH  032%=      5-min Rain = 0
KDO1 152351Z 28003KT 13/M04 A3011 RMK A01 T01281037  RH  032%=      5-min Rain = 0
KDO1 152352Z 29002KT 13/M04 A3011 RMK A01 T01281036  RH  032%=      5-min Rain = 0
KDO1 152353Z 28002KT 13/M04 A3011 RMK A01 T01281035  RH  032%=      5-min Rain = 0
KDO1 152354Z 28003KT 13/M04 A3011 RMK A01 T01271036  RH  032%=      5-min Rain = 0
KDO1 152355Z 28002KT 13/M04 A3011 RMK A01 T01271036  RH  032%=      5-min Rain = 0
KDO1 152356Z 29003KT 13/M04 A3011 RMK A01 T01271035  RH  032%=      5-min Rain = 0
KDO1 152357Z 29002KT 13/M04 A3011 RMK A01 T01271036  RH  032%=      5-min Rain = 0
KDO1 152358Z 29002KT 13/M03 A3011 RMK A01 T01271034  RH  032%=      5-min Rain = 0
KDO1 152359Z 28002KT 13/M03 A3011 RMK A01 T01271033  RH  033%=      5-min Rain = 0
KDO1 160000Z 28003KT 13/M03 A3011 RMK A01 T01271033  RH  033%=      5-min Rain = 0
KDO1 160001Z 28003KT 13/M03 A3011 RMK A01 T01261033  RH  033%=      5-min Rain = 0
KDO1 160002Z 27002KT 13/M03 A3011 RMK A01 T01261032  RH  033%=      5-min Rain = 0
KDO1 160003Z 27002KT 13/M03 A3011 RMK A01 T01261032  RH  033%=      5-min Rain = 0
KDO1 160004Z 28002KT 13/M03 A3011 RMK A01 T01251030  RH  034%=      5-min Rain = 0
KDO1 160005Z 29002KT 13/M03 A3011 RMK A01 T01251030  RH  034%=      5-min Rain = 0
KDO1 160006Z 29001KT 13/M03 A3011 RMK A01 T01251030  RH  034%=      5-min Rain = 0
KDO1 160007Z 29000KT 13/M03 A3011 RMK A01 T01251029  RH  034%=      5-min Rain = 0
KDO1 160008Z 00000KT 13/M03 A3011 RMK A01 T01251028  RH  034%=      5-min Rain = 0
KDO1 160009Z 00000KT 13/M03 A3011 RMK A01 T01261029  RH  034%=      5-min Rain = 0
KDO1 160010Z 00000KT 13/M03 A3011 RMK A01 T01261029  RH  034%=      5-min Rain = 0
KDO1 160011Z 00000KT 13/M03 A3011 RMK A01 T01261029  RH  034%=      5-min Rain = 0
KDO1 160012Z 32001KT 13/M03 A3011 RMK A01 T01251029  RH  034%=      5-min Rain = 0
KDO1 160013Z 31001KT 12/M03 A3011 RMK A01 T01241026  RH  035%=      5-min Rain = 0
KDO1 160014Z 31000KT 12/M02 A3011 RMK A01 T01241024  RH  036%=      5-min Rain = 0
KDO1 160015Z 00000KT 12/M03 A3011 RMK A01 T01231025  RH  036%=      5-min Rain = 0
KDO1 160016Z 00000KT 12/M03 A3011 RMK A01 T01221026  RH  035%=      5-min Rain = 0
KDO1 160017Z 00000KT 12/M03 A3011 RMK A01 T01231025  RH  036%=      5-min Rain = 0
KDO1 160018Z 00000KT 12/M03 A3011 RMK A01 T01221026  RH  036%=      5-min Rain = 0
KDO1 160019Z 00000KT 12/M03 A3011 RMK A01 T01221027  RH  035%=      5-min Rain = 0
KDO1 160020Z 00000KT 12/M03 A3011 RMK A01 T01221026  RH  036%=      5-min Rain = 0
KDO1 160021Z 00000KT 12/M02 A3011 RMK A01 T01221022  RH  037%=      5-min Rain = 0
KDO1 160022Z 00000KT 12/M02 A3011 RMK A01 T01211022  RH  037%=      5-min Rain = 0
KDO1 160023Z 00000KT 12/M02 A3011 RMK A01 T01211022  RH  037%=      5-min Rain = 0
KDO1 160024Z 00000KT 12/M02 A3011 RMK A01 T01201024  RH  037%=      5-min Rain = 0
KDO1 160025Z 00000KT 12/M03 A3011 RMK A01 T01181026  RH  036%=      5-min Rain = 0
KDO1 160026Z 20000KT 12/M03 A3011 RMK A01 T01171026  RH  037%=      5-min Rain = 0
KDO1 160027Z 20002KT 12/M02 A3011 RMK A01 T01161023  RH  038%=      5-min Rain = 0
KDO1 160028Z 20002KT 11/M02 A3011 RMK A01 T01131023  RH  039%=      5-min Rain = 0
KDO1 160029Z 20001KT 11/M02 A3011 RMK A01 T01101024  RH  039%=      5-min Rain = 0
KDO1 160030Z 21002KT 11/M02 A3011 RMK A01 T01081024  RH  039%=      5-min Rain = 0
KDO1 160031Z 21001KT 11/M02 A3011 RMK A01 T01081023  RH  040%=      5-min Rain = 0
KDO1 160032Z 21001KT 11/M02 A3011 RMK A01 T01081023  RH  040%=      5-min Rain = 0
KDO1 160033Z 21001KT 11/M02 A3011 RMK A01 T01081022  RH  040%=      5-min Rain = 0
KDO1 160034Z 21001KT 11/M02 A3011 RMK A01 T01081022  RH  040%=      5-min Rain = 0
KDO1 160035Z 21001KT 11/M02 A3011 RMK A01 T01081022  RH  040%=      5-min Rain = 0
KDO1 160036Z 21001KT 11/M02 A3011 RMK A01 T01071023  RH  040%=      5-min Rain = 0
KDO1 160037Z 21001KT 11/M02 A3011 RMK A01 T01071024  RH  040%=      5-min Rain = 0
KDO1 160038Z 21001KT 11/M03 A3011 RMK A01 T01071025  RH  040%=      5-min Rain = 0
KDO1 160039Z 21001KT 11/M02 A3011 RMK A01 T01071024  RH  040%=      5-min Rain = 0
KDO1 160040Z 20001KT 11/M02 A3011 RMK A01 T01071024  RH  040%=      5-min Rain = 0
KDO1 160041Z 20001KT 11/M03 A3011 RMK A01 T01071025  RH  040%=      5-min Rain = 0
KDO1 160042Z 19001KT 11/M03 A3011 RMK A01 T01071025  RH  040%=      5-min Rain = 0
KDO1 160043Z 19001KT 11/M03 A301 RMK A01 T01061025  RH  040%=      5-min Rain = 0
KDO1 160044Z 19002KT 11/M03 A3011 RMK A01 T01061027  RH  039%=      5-min Rain = 0
KDO1 160045Z 19002KT 11/M03 A3011 RMK A01 T01061029  RH  039%=      5-min Rain = 0
KDO1 160046Z 19002KT 11/M03 A3011 RMK A01 T01051030  RH  039%=      5-min Rain = 0
KDO1 160047Z 19002KT 11/M03 A3011 RMK A01 T01051030  RH  039%=      5-min Rain = 0
KDO1 160048Z 18002KT 11/M03 A3011 RMK A01 T01051030  RH  039%=      5-min Rain = 0
KDO1 160049Z 18002KT 10/M03 A3011 RMK A01 T01041030  RH  039%=      5-min Rain = 0
KDO1 160050Z 18002KT 10/M03 A3011 RMK A01 T01041029  RH  039%=      5-min Rain = 0
KDO1 160051Z 18002KT 10/M03 A3011 RMK A01 T01031028  RH  040%=      5-min Rain = 0
KDO1 160052Z 18002KT 10/M03 A3011 RMK A01 T01031027  RH  040%=      5-min Rain = 0
KDO1 160053Z 18002KT 10/M03 A3011 RMK A01 T01021027  RH  040%=      5-min Rain = 0
KDO1 160054Z 18002KT 10/M03 A3011 RMK A01 T01011027  RH  041%=      5-min Rain = 0
KDO1 160055Z 18002KT 10/M03 A3011 RMK A01 T01011026  RH  041%=      5-min Rain = 0
KDO1 160056Z 18002KT 10/M03 A3011 RMK A01 T01001026  RH  041%=      5-min Rain = 0
KDO1 160057Z 18002KT 10/M03 A3011 RMK A01 T00991026  RH  041%=      5-min Rain = 0
KDO1 160058Z 18002KT 10/M02 A3011 RMK A01 T00981024  RH  042%=      5-min Rain = 0
KDO1 160059Z 18003KT 10/M02 A3011 RMK A01 T00981023  RH  043%=      5-min Rain = 0
KDO1 160100Z 18004KT 10/M02 A3011 RMK A01 T00971024  RH  043%=      5-min Rain = 0
KDO1 160101Z 18003KT 10/M03 A3011 RMK A01 T00961026  RH  042%=      5-min Rain = 0
KDO1 160102Z 17003KT 10/M03 A3011 RMK A01 T00951028  RH  042%=      5-min Rain = 0
KDO1 160103Z 16002KT 10/M03 A3011 RMK A01 T00951028  RH  042%=      5-min Rain = 0
KDO1 160104Z 16003KT 09/M03 A3011 RMK A01 T00941029  RH  042%=      5-min Rain = 0
KDO1 160105Z 16003KT 09/M03 A3011 RMK A01 T00931030  RH  042%=      5-min Rain = 0
KDO1 160106Z 16003KT 09/M03 A3011 RMK A01 T00931030  RH  042%=      5-min Rain = 0
KDO1 160107Z 15003KT 09/M03 A3011 RMK A01 T00921029  RH  042%=      5-min Rain = 0
KDO1 160108Z 16003KT 09/M03 A3011 RMK A01 T00921029  RH  042%=      5-min Rain = 0
KDO1 160109Z 15003KT 09/M03 A3011 RMK A01 T00911029  RH  043%=      5-min Rain = 0
KDO1 160110Z 15002KT 09/M03 A3011 RMK A01 T00911029  RH  043%=      5-min Rain = 0
KDO1 160111Z 15003KT 09/M03 A3011 RMK A01 T00911029  RH  043%=      5-min Rain = 0
KDO1 160112Z 14002KT 09/M03 A3011 RMK A01 T00901029  RH  043%=      5-min Rain = 0
KDO1 160113Z 15002KT 09/M03 A3011 RMK A01 T00901030  RH  043%=      5-min Rain = 0
KDO1 160114Z 15002KT 09/M03 A3011 RMK A01 T00901030  RH  043%=      5-min Rain = 0
KDO1 160115Z 14002KT 09/M03 A3011 RMK A01 T00891031  RH  043%=      5-min Rain = 0
KDO1 160116Z 15002KT 09/M03 A3011 RMK A01 T00891032  RH  043%=      5-min Rain = 0
KDO1 160117Z 15003KT 09/M03 A3011 RMK A01 T00891032  RH  042%=      5-min Rain = 0
KDO1 160118Z 15003KT 09/M03 A3011 RMK A01 T00891032  RH  043%=      5-min Rain = 0
KDO1 160119Z 15002KT 09/M03 A3011 RMK A01 T00881032  RH  043%=      5-min Rain = 0
KDO1 160120Z 15002KT 09/M03 A3011 RMK A01 T00881033  RH  043%=      5-min Rain = 0
KDO1 160121Z 14002KT 09/M03 A3011 RMK A01 T00881033  RH  043%=      5-min Rain = 0
KDO1 160122Z 14002KT 09/M03 A3011 RMK A01 T00871033  RH  043%=      5-min Rain = 0
KDO1 160123Z 14002KT 09/M03 A3011 RMK A01 T00871033  RH  043%=      5-min Rain = 0
KDO1 160124Z 15002KT 09/M03 A3011 RMK A01 T00861034  RH  043%=      5-min Rain = 0
KDO1 160125Z 15002KT 09/M03 A3011 RMK A01 T00861033  RH  043%=      5-min Rain = 0
KDO1 160126Z 16002KT 09/M03 A3011 RMK A01 T00851034  RH  043%=      5-min Rain = 0
KDO1 160127Z 16002KT 09/M03 A3011 RMK A01 T00851034  RH  043%=      5-min Rain = 0
KDO1 160128Z 15002KT 09/M03 A3011 RMK A01 T00851034  RH  043%=      5-min Rain = 0
KDO1 160129Z 16002KT 08/M03 A3011 RMK A01 T00841034  RH  043%=      5-min Rain = 0
KDO1 160130Z 16002KT 08/M03 A3011 RMK A01 T00841034  RH  043%=      5-min Rain = 0
KDO1 160131Z 16002KT 08/M03 A3011 RMK A01 T00841034  RH  043%=      5-min Rain = 0
KDO1 160132Z 16002KT 08/M03 A3011 RMK A01 T00831034  RH  043%=      5-min Rain = 0
KDO1 160133Z 16001KT 08/M03 A3011 RMK A01 T00831033  RH  044%=      5-min Rain = 0
KDO1 160134Z 16001KT 08/M03 A3011 RMK A01 T00831031  RH  045%=      5-min Rain = 0
KDO1 160135Z 16001KT 08/M03 A3011 RMK A01 T00821031  RH  045%=      5-min Rain = 0
KDO1 160136Z 15001KT 08/M03 A3011 RMK A01 T00821030  RH  045%=      5-min Rain = 0
KDO1 160137Z 15001KT 08/M03 A3011 RMK A01 T00821029  RH  045%=      5-min Rain = 0
KDO1 160138Z 15001KT 08/M03 A3011 RMK A01 T00821029  RH  046%=      5-min Rain = 0
KDO1 160139Z 15001KT 08/M03 A3011 RMK A01 T00821029  RH  046%=      5-min Rain = 0
KDO1 160140Z 13001KT 08/M03 A3012 RMK A01 T00811029  RH  046%=      5-min Rain = 0
KDO1 160141Z 12000KT 08/M03 A3011 RMK A01 T00811029  RH  046%=      5-min Rain = 0
KDO1 160142Z 17000KT 08/M03 A3012 RMK A01 T00811029  RH  046%=      5-min Rain = 0
KDO1 160143Z 17000KT 08/M03 A3012 RMK A01 T00801030  RH  046%=      5-min Rain = 0
KDO1 160144Z 17001KT 08/M03 A3012 RMK A01 T00801031  RH  045%=      5-min Rain = 0
KDO1 160145Z 19001KT 08/M03 A3012 RMK A01 T00801031  RH  046%=      5-min Rain = 0
KDO1 160146Z 19001KT 08/M03 A3012 RMK A01 T00791031  RH  046%=      5-min Rain = 0
KDO1 160147Z 18001KT 08/M03 A3012 RMK A01 T00781031  RH  046%=      5-min Rain = 0
KDO1 160148Z 18001KT 08/M03 A3012 RMK A01 T00781031  RH  046%=      5-min Rain = 0
KDO1 160149Z 18001KT 08/M03 A3012 RMK A01 T00781032  RH  046%=      5-min Rain = 0
KDO1 160150Z 18001KT 08/M03 A3012 RMK A01 T00781031  RH  046%=      5-min Rain = 0
KDO1 160151Z 19002KT 08/M03 A3012 RMK A01 T00771032  RH  046%=      5-min Rain = 0
KDO1 160152Z 19002KT 08/M03 A3012 RMK A01 T00771031  RH  046%=      5-min Rain = 0
KDO1 160153Z 19002KT 08/M03 A3012 RMK A01 T00771032  RH  046%=      5-min Rain = 0
KDO1 160154Z 19002KT 08/M03 A3012 RMK A01 T00761033  RH  046%=      5-min Rain = 0
KDO1 160155Z 19002KT 08/M03 A3012 RMK A01 T00761034  RH  046%=      5-min Rain = 0
KDO1 160156Z 19003KT 08/M03 A3012 RMK A01 T00761034  RH  046%=      5-min Rain = 0
KDO1 160157Z 20003KT 08/M03 A3012 RMK A01 T00761033  RH  046%=      5-min Rain = 0
KDO1 160158Z 21002KT 08/M03 A3012 RMK A01 T00761034  RH  046%=      5-min Rain = 0
KDO1 160159Z 20002KT 08/M03 A3012 RMK A01 T00751034  RH  046%=      5-min Rain = 0
KDO1 160200Z 21002KT 08/M03 A3012 RMK A01 T00751034  RH  046%=      5-min Rain = 0
KDO1 160201Z 21002KT 08/M03 A3012 RMK A01 T00751034  RH  046%=      5-min Rain = 0
KDO1 160202Z 20003KT 07/M03 A3012 RMK A01 T00741033  RH  046%=      5-min Rain = 0
KDO1 160203Z 20003KT 07/M03 A3012 RMK A01 T00741032  RH  047%=      5-min Rain = 0
KDO1 160204Z 20004KT 07/M03 A3012 RMK A01 T00731032  RH  047%=      5-min Rain = 0
KDO1 160205Z 20004KT 07/M03 A3012 RMK A01 T00731032  RH  047%=      5-min Rain = 0
KDO1 160206Z 20004KT 07/M03 A3012 RMK A01 T00721031  RH  048%=      5-min Rain = 0
KDO1 160207Z 20004KT 07/M03 A3012 RMK A01 T00711031  RH  048%=      5-min Rain = 0
KDO1 160208Z 19004KT 07/M03 A3012 RMK A01 T00701031  RH  049%=      5-min Rain = 0
KDO1 160209Z 19004KT 07/M03 A3012 RMK A01 T00691031  RH  049%=      5-min Rain = 0
KDO1 160210Z 20004KT 07/M03 A3012 RMK A01 T00691031  RH  049%=      5-min Rain = 0
KDO1 160211Z 20004KT 07/M03 A3012 RMK A01 T00681032  RH  049%=      5-min Rain = 0
KDO1 160212Z 20005KT 07/M03 A3012 RMK A01 T00671033  RH  049%=      5-min Rain = 0
KDO1 160213Z 20004KT 07/M03 A3012 RMK A01 T00671033  RH  049%=      5-min Rain = 0
KDO1 160214Z 20004KT 07/M03 A3012 RMK A01 T00671033  RH  049%=      5-min Rain = 0
KDO1 160215Z 21005KT 07/M03 A3012 RMK A01 T00661033  RH  049%=      5-min Rain = 0
KDO1 160216Z 20004KT 07/M03 A3012 RMK A01 T00661033  RH  049%=      5-min Rain = 0
KDO1 160217Z 20005KT 07/M03 A3012 RMK A01 T00661033  RH  049%=      5-min Rain = 0
KDO1 160218Z 20005KT 07/M03 A3012 RMK A01 T00651033  RH  050%=      5-min Rain = 0
KDO1 160219Z 20004KT 07/M03 A3012 RMK A01 T00651033  RH  050%=      5-min Rain = 0
KDO1 160220Z 20004KT 07/M03 A3012 RMK A01 T00651032  RH  050%=      5-min Rain = 0
KDO1 160221Z 20004KT 06/M03 A3012 RMK A01 T00641033  RH  050%=      5-min Rain = 0
KDO1 160222Z 20004KT 06/M03 A3012 RMK A01 T00641033  RH  050%=      5-min Rain = 0
KDO1 160223Z 20004KT 06/M03 A3012 RMK A01 T00631033  RH  050%=      5-min Rain = 0
KDO1 160224Z 20004KT 06/M03 A3012 RMK A01 T00631034  RH  050%=      5-min Rain = 0
KDO1 160225Z 20004KT 06/M03 A3012 RMK A01 T00621034  RH  050%=      5-min Rain = 0
KDO1 160226Z 20003KT 06/M03 A3012 RMK A01 T00621034  RH  050%=      5-min Rain = 0
KDO1 160227Z 20003KT 06/M03 A3012 RMK A01 T00621034  RH  050%=      5-min Rain = 0
KDO1 160228Z 20003KT 06/M03 A3012 RMK A01 T00621034  RH  050%=      5-min Rain = 0
KDO1 160229Z 20003KT 06/M03 A3012 RMK A01 T00611034  RH  050%=      5-min Rain = 0
KDO1 160230Z 21003KT 06/M03 A3012 RMK A01 T00611034  RH  050%=      5-min Rain = 0
KDO1 160231Z 20003KT 06/M03 A3012 RMK A01 T00611034  RH  051%=      5-min Rain = 0
KDO1 160232Z 21003KT 06/M03 A3012 RMK A01 T00611034  RH  051%=      5-min Rain = 0
KDO1 160233Z 20003KT 06/M03 A3012 RMK A01 T00611034  RH  051%=      5-min Rain = 0
KDO1 160234Z 20003KT 06/M03 A3012 RMK A01 T00601034  RH  051%=      5-min Rain = 0
KDO1 160235Z 20002KT 06/M03 A3012 RMK A01 T00611034  RH  051%=      5-min Rain = 0
KDO1 160236Z 20002KT 06/M03 A3012 RMK A01 T00601034  RH  051%=      5-min Rain = 0
KDO1 160237Z 20002KT 06/M03 A3012 RMK A01 T00601034  RH  051%=      5-min Rain = 0
KDO1 160238Z 20002KT 06/M03 A3012 RMK A01 T00601034  RH  051%=      5-min Rain = 0
KDO1 160239Z 20002KT 06/M03 A3012 RMK A01 T00601034  RH  051%=      5-min Rain = 0
KDO1 160240Z 21002KT 06/M03 A3012 RMK A01 T00611034  RH  051%=      5-min Rain = 0
KDO1 160241Z 21002KT 06/M03 A3012 RMK A01 T00601034  RH  051%=      5-min Rain = 0
KDO1 160242Z 20002KT 06/M03 A3012 RMK A01 T00601033  RH  051%=      5-min Rain = 0
KDO1 160243Z 21002KT 06/M03 A3012 RMK A01 T00611033  RH  051%=      5-min Rain = 0
KDO1 160244Z 21002KT 06/M03 A3012 RMK A01 T00601033  RH  051%=      5-min Rain = 0
KDO1 160245Z 21001KT 06/M03 A3012 RMK A01 T00601032  RH  052%=      5-min Rain = 0
KDO1 160246Z 21002KT 06/M03 A3012 RMK A01 T00601032  RH  052%=      5-min Rain = 0
KDO1 160247Z 21001KT 06/M03 A3012 RMK A01 T00601031  RH  052%=      5-min Rain = 0
KDO1 160248Z 21001KT 06/M03 A3012 RMK A01 T00601032  RH  052%=      5-min Rain = 0
KDO1 160249Z 21000KT 06/M03 A3012 RMK A01 T00591032  RH  052%=      5-min Rain = 0
KDO1 160250Z 22000KT 06/M03 A3012 RMK A01 T00591032  RH  052%=      5-min Rain = 0
KDO1 160251Z 21000KT 06/M03 A3012 RMK A01 T00581031  RH  053%=      5-min Rain = 0
KDO1 160252Z 00000KT 06/M03 A3012 RMK A01 T00581030  RH  053%=      5-min Rain = 0
KDO1 160253Z 22001KT 06/M03 A3012 RMK A01 T00571027  RH  055%=      5-min Rain = 0
KDO1 160254Z 21000KT 06/M03 A3012 RMK A01 T00561030  RH  054%=      5-min Rain = 0
KDO1 160255Z 00000KT 06/M03 A3012 RMK A01 T00561031  RH  054%=      5-min Rain = 0
KDO1 160256Z 00000KT 06/M03 A3012 RMK A01 T00561030  RH  054%=      5-min Rain = 0
KDO1 160257Z 29000KT 06/M03 A3012 RMK A01 T00551028  RH  055%=      5-min Rain = 0
KDO1 160258Z 00000KT 06/M03 A3012 RMK A01 T00551027  RH  056%=      5-min Rain = 0
KDO1 160259Z 28000KT 06/M03 A3012 RMK A01 T00551025  RH  056%=      5-min Rain = 0
KDO1 160300Z 00000KT 06/M02 A3012 RMK A01 T00551023  RH  057%=      5-min Rain = 0
KDO1 160301Z 00000KT 05/M02 A3012 RMK A01 T00541022  RH  058%=      5-min Rain = 0
KDO1 160302Z 00000KT 05/M02 A3012 RMK A01 T00541022  RH  058%=      5-min Rain = 0
KDO1 160303Z 00000KT 05/M02 A3012 RMK A01 T00541022  RH  058%=      5-min Rain = 0
KDO1 160304Z 00000KT 05/M02 A3012 RMK A01 T00531022  RH  058%=      5-min Rain = 0
KDO1 160305Z 00000KT 05/M02 A3012 RMK A01 T00531022  RH  058%=      5-min Rain = 0
KDO1 160306Z 00000KT 05/M02 A3013 RMK A01 T00531022  RH  058%=      5-min Rain = 0
KDO1 160307Z 00000KT 05/M02 A3012 RMK A01 T00541022  RH  058%=      5-min Rain = 0
KDO1 160308Z 25000KT 05/M02 A3012 RMK A01 T00531022  RH  058%=      5-min Rain = 0
KDO1 160309Z 24000KT 05/M02 A3012 RMK A01 T00531022  RH  058%=      5-min Rain = 0
KDO1 160310Z 24000KT 05/M02 A3012 RMK A01 T00531022  RH  058%=      5-min Rain = 0
KDO1 160311Z 24001KT 05/M02 A3012 RMK A01 T00521023  RH  058%=      5-min Rain = 0
KDO1 160312Z 22001KT 05/M02 A3012 RMK A01 T00521023  RH  058%=      5-min Rain = 0
KDO1 160313Z 24001KT 05/M02 A3012 RMK A01 T00521023  RH  058%=      5-min Rain = 0
KDO1 160314Z 23001KT 05/M02 A3012 RMK A01 T00521023  RH  058%=      5-min Rain = 0
KDO1 160315Z 24001KT 05/M02 A3012 RMK A01 T00521023  RH  058%=      5-min Rain = 0
KDO1 160316Z 23001KT 05/M02 A3012 RMK A01 T00521023  RH  058%=      5-min Rain = 0
KDO1 160317Z 22001KT 05/M02 A3012 RMK A01 T00521023  RH  058%=      5-min Rain = 0
KDO1 160318Z 22001KT 05/M02 A3012 RMK A01 T00521023  RH  058%=      5-min Rain = 0
KDO1 160319Z 22002KT 05/M02 A3012 RMK A01 T00521023  RH  058%=      5-min Rain = 0
KDO1 160320Z 22002KT 05/M02 A3012 RMK A01 T00521023  RH  058%=      5-min Rain = 0
KDO1 160321Z 22002KT 05/M02 A3012 RMK A01 T00531023  RH  058%=      5-min Rain = 0
KDO1 160322Z 22002KT 05/M02 A3012 RMK A01 T00531022  RH  058%=      5-min Rain = 0
KDO1 160323Z 22002KT 05/M02 A3012 RMK A01 T00531023  RH  058%=      5-min Rain = 0
KDO1 160324Z 23002KT 05/M02 A3012 RMK A01 T00521023  RH  058%=      5-min Rain = 0
KDO1 160325Z 23001KT 05/M02 A3012 RMK A01 T00521023  RH  059%=      5-min Rain = 0
KDO1 160326Z 23002KT 05/M02 A3012 RMK A01 T00511023  RH  059%=      5-min Rain = 0
KDO1 160327Z 24001KT 05/M02 A3012 RMK A01 T00511023  RH  059%=      5-min Rain = 0
KDO1 160328Z 23002KT 05/M02 A3012 RMK A01 T00501023  RH  059%=      5-min Rain = 0
KDO1 160329Z 23002KT 05/M02 A3012 RMK A01 T00501023  RH  059%=      5-min Rain = 0
KDO1 160330Z 23002KT 05/M02 A3012 RMK A01 T00501023  RH  059%=      5-min Rain = 0
KDO1 160331Z 23002KT 05/M02 A3012 RMK A01 T00501023  RH  059%=      5-min Rain = 0
KDO1 160332Z 23002KT 05/M02 A3012 RMK A01 T00501023  RH  059%=      5-min Rain = 0
KDO1 160333Z 23002KT 05/M02 A3012 RMK A01 T00491023  RH  059%=      5-min Rain = 0
KDO1 160334Z 22002KT 05/M02 A3012 RMK A01 T00491023  RH  060%=      5-min Rain = 0
KDO1 160335Z 22002KT 05/M02 A3012 RMK A01 T00491024  RH  060%=      5-min Rain = 0
KDO1 160336Z 22003KT 05/M02 A3012 RMK A01 T00491023  RH  060%=      5-min Rain = 0
KDO1 160337Z 22003KT 05/M02 A3012 RMK A01 T00481023  RH  060%=      5-min Rain = 0
KDO1 160338Z 22003KT 05/M02 A3012 RMK A01 T00491023  RH  060%=      5-min Rain = 0
KDO1 160339Z 22003KT 05/M02 A3012 RMK A01 T00491023  RH  060%=      5-min Rain = 0
KDO1 160340Z 22004KT 05/M02 A3012 RMK A01 T00481023  RH  060%=      5-min Rain = 0
KDO1 160341Z 22004KT 05/M02 A3012 RMK A01 T00491022  RH  060%=      5-min Rain = 0
KDO1 160342Z 22004KT 05/M02 A3012 RMK A01 T00491023  RH  060%=      5-min Rain = 0
KDO1 160343Z 22004KT 05/M02 A3012 RMK A01 T00491022  RH  060%=      5-min Rain = 0
KDO1 160344Z 22004KT 05/M02 A3012 RMK A01 T00481023  RH  060%=      5-min Rain = 0
KDO1 160345Z 22004KT 05/M02 A3012 RMK A01 T00481023  RH  060%=      5-min Rain = 0
KDO1 160346Z 22004KT 05/M02 A3012 RMK A01 T00471023  RH  061%=      5-min Rain = 0
KDO1 160347Z 22004KT 05/M02 A3012 RMK A01 T00471023  RH  061%=      5-min Rain = 0
KDO1 160348Z 22004KT 05/M02 A3012 RMK A01 T00471023  RH  061%=      5-min Rain = 0
KDO1 160349Z 22004KT 05/M02 A3012 RMK A01 T00461023  RH  061%=      5-min Rain = 0
KDO1 160350Z 22004KT 05/M02 A3012 RMK A01 T00461023  RH  061%=      5-min Rain = 0
KDO1 160351Z 22004KT 05/M02 A3012 RMK A01 T00461023  RH  061%=      5-min Rain = 0
KDO1 160352Z 22004KT 05/M02 A3012 RMK A01 T00461023  RH  061%=      5-min Rain = 0
KDO1 160353Z 22004KT 05/M02 A3012 RMK A01 T00451024  RH  061%=      5-min Rain = 0
KDO1 160354Z 22004KT 05/M02 A3012 RMK A01 T00451023  RH  061%=      5-min Rain = 0
KDO1 160355Z 22004KT 05/M02 A3012 RMK A01 T00461023  RH  061%=      5-min Rain = 0
KDO1 160356Z 22004KT 05/M02 A3012 RMK A01 T00451024  RH  061%=      5-min Rain = 0
KDO1 160357Z 22004KT 05/M02 A3012 RMK A01 T00451024  RH  061%=      5-min Rain = 0
KDO1 160358Z 22004KT 05/M02 A3012 RMK A01 T00461024  RH  061%=      5-min Rain = 0
KDO1 160359Z 22004KT 05/M02 A3012 RMK A01 T00461024  RH  061%=      5-min Rain = 0
KDO1 160400Z 22004KT 05/M02 A3012 RMK A01 T00461024  RH  060%=      5-min Rain = 0
KDO1 160401Z 22003KT 05/M02 A3012 RMK A01 T00471024  RH  060%=      5-min Rain = 0
KDO1 160402Z 22004KT 05/M02 A3012 RMK A01 T00471024  RH  060%=      5-min Rain = 0
KDO1 160403Z 22003KT 05/M02 A3012 RMK A01 T00481024  RH  060%=      5-min Rain = 0
KDO1 160404Z 22004KT 05/M02 A3012 RMK A01 T00481024  RH  060%=      5-min Rain = 0
KDO1 160405Z 22003KT 05/M02 A3012 RMK A01 T00481024  RH  060%=      5-min Rain = 0
KDO1 160406Z 22003KT 05/M02 A3012 RMK A01 T00481024  RH  060%=      5-min Rain = 0
KDO1 160407Z 22003KT 05/M02 A3012 RMK A01 T00481024  RH  060%=      5-min Rain = 0
KDO1 160408Z 23003KT 05/M02 A3012 RMK A01 T00481024  RH  060%=      5-min Rain = 0
KDO1 160409Z 23003KT 05/M02 A3012 RMK A01 T00481024  RH  060%=      5-min Rain = 0
KDO1 160410Z 23003KT 05/M02 A3012 RMK A01 T00471024  RH  060%=      5-min Rain = 0
KDO1 160411Z 22004KT 05/M02 A3012 RMK A01 T00471024  RH  060%=      5-min Rain = 0
KDO1 160412Z 22004KT 05/M02 A3012 RMK A01 T00471024  RH  060%=      5-min Rain = 0
KDO1 160413Z 22004KT 05/M02 A3012 RMK A01 T00471024  RH  060%=      5-min Rain = 0
KDO1 160414Z 22003KT 05/M02 A3012 RMK A01 T00471024  RH  060%=      5-min Rain = 0
KDO1 160415Z 22003KT 05/M02 A3012 RMK A01 T00471023  RH  060%=      5-min Rain = 0
KDO1 160416Z 22003KT 05/M02 A3012 RMK A01 T00471024  RH  060%=      5-min Rain = 0
KDO1 160417Z 23003KT 05/M02 A3012 RMK A01 T00471024  RH  060%=      5-min Rain = 0
KDO1 160418Z 23003KT 05/M02 A3012 RMK A01 T00471024  RH  060%=      5-min Rain = 0
KDO1 160419Z 23003KT 05/M02 A3012 RMK A01 T00481023  RH  060%=      5-min Rain = 0
KDO1 160420Z 23003KT 05/M02 A3012 RMK A01 T00471023  RH  060%=      5-min Rain = 0
KDO1 160421Z 24003KT 05/M02 A3012 RMK A01 T00471023  RH  060%=      5-min Rain = 0
KDO1 160422Z 24003KT 05/M02 A3012 RMK A01 T00471023  RH  060%=      5-min Rain = 0
KDO1 160423Z 24004KT 05/M02 A3012 RMK A01 T00471023  RH  060%=      5-min Rain = 0
KDO1 160424Z 25004KT 05/M02 A3012 RMK A01 T00471023  RH  060%=      5-min Rain = 0
KDO1 160425Z 25004KT 05/M02 A3012 RMK A01 T00471023  RH  061%=      5-min Rain = 0
KDO1 160426Z 26003KT 05/M02 A3012 RMK A01 T00471022  RH  061%=      5-min Rain = 0
KDO1 160427Z 26003KT 05/M02 A3012 RMK A01 T00461022  RH  061%=      5-min Rain = 0
KDO1 160428Z 25004KT 05/M02 A3012 RMK A01 T00461022  RH  061%=      5-min Rain = 0
KDO1 160429Z 26003KT 05/M02 A3012 RMK A01 T00461022  RH  062%=      5-min Rain = 0
KDO1 160430Z 25004KT 05/M02 A3012 RMK A01 T00461021  RH  062%=      5-min Rain = 0
KDO1 160431Z 25004KT 05/M02 A3012 RMK A01 T00451021  RH  062%=      5-min Rain = 0
KDO1 160432Z 25004KT 05/M02 A3012 RMK A01 T00451021  RH  062%=      5-min Rain = 0
KDO1 160433Z 25004KT 05/M02 A3012 RMK A01 T00451021  RH  062%=      5-min Rain = 0
KDO1 160434Z 25004KT 05/M02 A3012 RMK A01 T00451021  RH  062%=      5-min Rain = 0
KDO1 160435Z 25004KT 05/M02 A3012 RMK A01 T00451021  RH  062%=      5-min Rain = 0
KDO1 160436Z 25004KT 04/M02 A3012 RMK A01 T00441021  RH  062%=      5-min Rain = 0
KDO1 160437Z 25004KT 04/M02 A3012 RMK A01 T00441021  RH  063%=      5-min Rain = 0
KDO1 160438Z 25004KT 04/M02 A3012 RMK A01 T00431021  RH  063%=      5-min Rain = 0
KDO1 160439Z 25005KT 04/M02 A3012 RMK A01 T00431021  RH  063%=      5-min Rain = 0
KDO1 160440Z 25005KT 04/M02 A3012 RMK A01 T00421021  RH  063%=      5-min Rain = 0
KDO1 160441Z 24005KT 04/M02 A3012 RMK A01 T00421021  RH  064%=      5-min Rain = 0
KDO1 160442Z 25005KT 04/M02 A3011 RMK A01 T00411021  RH  064%=      5-min Rain = 0
KDO1 160443Z 24005KT 04/M02 A3011 RMK A01 T00411022  RH  064%=      5-min Rain = 0
KDO1 160444Z 25005KT 04/M02 A3011 RMK A01 T00411022  RH  064%=      5-min Rain = 0
KDO1 160445Z 25004KT 04/M02 A3011 RMK A01 T00411021  RH  064%=      5-min Rain = 0
KDO1 160446Z 25004KT 04/M02 A3011 RMK A01 T00411022  RH  064%=      5-min Rain = 0
KDO1 160447Z 25004KT 04/M02 A3011 RMK A01 T00411021  RH  064%=      5-min Rain = 0
KDO1 160448Z 25004KT 04/M02 A3011 RMK A01 T00411021  RH  064%=      5-min Rain = 0
KDO1 160449Z 25005KT 04/M02 A3011 RMK A01 T00411021  RH  064%=      5-min Rain = 0
KDO1 160450Z 25005KT 04/M02 A3011 RMK A01 T00411021  RH  064%=      5-min Rain = 0
KDO1 160451Z 25005KT 04/M02 A3011 RMK A01 T00411022  RH  064%=      5-min Rain = 0
KDO1 160452Z 25004KT 04/M02 A3011 RMK A01 T00411022  RH  064%=      5-min Rain = 0
KDO1 160453Z 25004KT 04/M02 A3011 RMK A01 T00421022  RH  063%=      5-min Rain = 0
KDO1 160454Z 25003KT 04/M02 A3011 RMK A01 T00421021  RH  063%=      5-min Rain = 0
KDO1 160455Z 25004KT 04/M02 A3011 RMK A01 T00421021  RH  063%=      5-min Rain = 0
KDO1 160456Z 25004KT 04/M02 A3011 RMK A01 T00411021  RH  064%=      5-min Rain = 0
KDO1 160457Z 24004KT 04/M02 A3011 RMK A01 T00411022  RH  064%=      5-min Rain = 0
KDO1 160458Z 25004KT 04/M02 A3011 RMK A01 T00401022  RH  064%=      5-min Rain = 0
KDO1 160459Z 25005KT 04/M02 A3011 RMK A01 T00401022  RH  064%=      5-min Rain = 0
KDO1 160500Z 25005KT 04/M02 A3011 RMK A01 T00401022  RH  064%=      5-min Rain = 0
KDO1 160501Z 25004KT 04/M02 A3011 RMK A01 T00401022  RH  064%=      5-min Rain = 0
KDO1 160502Z 24004KT 04/M02 A3011 RMK A01 T00401021  RH  064%=      5-min Rain = 0
KDO1 160503Z 25004KT 04/M02 A3011 RMK A01 T00401021  RH  064%=      5-min Rain = 0
KDO1 160504Z 25005KT 04/M02 A3011 RMK A01 T00401021  RH  064%=      5-min Rain = 0
KDO1 160505Z 25004KT 04/M02 A3011 RMK A01 T00401021  RH  064%=      5-min Rain = 0
KDO1 160506Z 25005KT 04/M02 A3011 RMK A01 T00401021  RH  064%=      5-min Rain = 0
KDO1 160507Z 25005KT 04/M02 A3011 RMK A01 T00401021  RH  065%=      5-min Rain = 0
KDO1 160508Z 25005KT 04/M02 A3011 RMK A01 T00401021  RH  065%=      5-min Rain = 0
KDO1 160509Z 25005KT 04/M02 A3011 RMK A01 T00401020  RH  065%=      5-min Rain = 0
KDO1 160510Z 25005KT 04/M02 A3011 RMK A01 T00401020  RH  065%=      5-min Rain = 0
KDO1 160511Z 25005KT 04/M02 A301 RMK A01 T00391021  RH  065%=      5-min Rain = 0
KDO1 160512Z 25005KT 04/M02 A301 RMK A01 T00391021  RH  065%=      5-min Rain = 0
KDO1 160513Z 25005KT 04/M02 A301 RMK A01 T00391021  RH  065%=      5-min Rain = 0
KDO1 160514Z 25005KT 04/M02 A301 RMK A01 T00401021  RH  065%=      5-min Rain = 0
KDO1 160515Z 25005KT 04/M02 A301 RMK A01 T00401021  RH  065%=      5-min Rain = 0
KDO1 160516Z 25004KT 04/M02 A301 RMK A01 T00401021  RH  064%=      5-min Rain = 0
KDO1 160517Z 25004KT 04/M02 A301 RMK A01 T00401021  RH  064%=      5-min Rain = 0
KDO1 160518Z 25005KT 04/M02 A301 RMK A01 T00401021  RH  064%=      5-min Rain = 0
KDO1 160519Z 25004KT 04/M02 A301 RMK A01 T00401021  RH  064%=      5-min Rain = 0
KDO1 160520Z 25005KT 04/M02 A301 RMK A01 T00401021  RH  064%=      5-min Rain = 0
KDO1 160521Z 25005KT 04/M02 A301 RMK A01 T00401021  RH  064%=      5-min Rain = 0
KDO1 160522Z 25005KT 04/M02 A301 RMK A01 T00401021  RH  064%=      5-min Rain = 0
KDO1 160523Z 25005KT 04/M02 A301 RMK A01 T00401021  RH  065%=      5-min Rain = 0
KDO1 160524Z 24005KT 04/M02 A301 RMK A01 T00391021  RH  065%=      5-min Rain = 0
KDO1 160525Z 24005KT 04/M02 A301 RMK A01 T00391022  RH  064%=      5-min Rain = 0
KDO1 160526Z 25005KT 04/M02 A301 RMK A01 T00391022  RH  064%=      5-min Rain = 0
KDO1 160527Z 25006KT 04/M02 A301 RMK A01 T00391022  RH  064%=      5-min Rain = 0
KDO1 160528Z 25005KT 04/M02 A301 RMK A01 T00401022  RH  064%=      5-min Rain = 0
KDO1 160529Z 25006KT 04/M02 A301 RMK A01 T00401023  RH  064%=      5-min Rain = 0
KDO1 160530Z 25005KT 04/M02 A301 RMK A01 T00401023  RH  064%=      5-min Rain = 0
KDO1 160531Z 25005KT 04/M02 A301 RMK A01 T00401022  RH  064%=      5-min Rain = 0
KDO1 160532Z 25006KT 04/M02 A301 RMK A01 T00411022  RH  064%=      5-min Rain = 0
KDO1 160533Z 25006KT 04/M02 A301 RMK A01 T00411022  RH  064%=      5-min Rain = 0
KDO1 160534Z 25006KT 04/M02 A301 RMK A01 T00411022  RH  064%=      5-min Rain = 0
KDO1 160535Z 25006KT 04/M02 A301 RMK A01 T00421022  RH  063%=      5-min Rain = 0
KDO1 160536Z 25006KT 04/M02 A301 RMK A01 T00421022  RH  063%=      5-min Rain = 0
KDO1 160537Z 25006KT 04/M02 A301 RMK A01 T00421021  RH  063%=      5-min Rain = 0
KDO1 160538Z 25006KT 04/M02 A301 RMK A01 T00431021  RH  063%=      5-min Rain = 0
KDO1 160539Z 25006KT 04/M02 A301 RMK A01 T00431022  RH  063%=      5-min Rain = 0
KDO1 160540Z 25006KT 04/M02 A301 RMK A01 T00431022  RH  063%=      5-min Rain = 0
KDO1 160541Z 25005KT 04/M02 A301 RMK A01 T00431022  RH  063%=      5-min Rain = 0
KDO1 160542Z 25006KT 04/M02 A301 RMK A01 T00431021  RH  063%=      5-min Rain = 0
KDO1 160543Z 25005KT 04/M02 A301 RMK A01 T00431021  RH  063%=      5-min Rain = 0
KDO1 160544Z 26005KT 04/M02 A301 RMK A01 T00421021  RH  063%=      5-min Rain = 0
KDO1 160545Z 26005KT 04/M02 A301 RMK A01 T00421021  RH  063%=      5-min Rain = 0
KDO1 160546Z 25005KT 04/M02 A301 RMK A01 T00421021  RH  063%=      5-min Rain = 0
KDO1 160547Z 25005KT 04/M02 A301 RMK A01 T00411021  RH  064%=      5-min Rain = 0
KDO1 160548Z 25005KT 04/M02 A301 RMK A01 T00411022  RH  064%=      5-min Rain = 0
KDO1 160549Z 25005KT 04/M02 A301 RMK A01 T00411022  RH  064%=      5-min Rain = 0
KDO1 160550Z 25005KT 04/M02 A301 RMK A01 T00401022  RH  064%=      5-min Rain = 0
KDO1 160551Z 25004KT 04/M02 A301 RMK A01 T00401022  RH  064%=      5-min Rain = 0
KDO1 160552Z 25004KT 04/M02 A301 RMK A01 T00401022  RH  064%=      5-min Rain = 0
KDO1 160553Z 25004KT 04/M02 A301 RMK A01 T00401022  RH  064%=      5-min Rain = 0
KDO1 160554Z 25004KT 04/M02 A301 RMK A01 T00401022  RH  064%=      5-min Rain = 0
KDO1 160555Z 25004KT 04/M02 A301 RMK A01 T00401023  RH  064%=      5-min Rain = 0
KDO1 160556Z 25004KT 04/M02 A301 RMK A01 T00391023  RH  064%=      5-min Rain = 0
KDO1 160557Z 25004KT 04/M02 A301 RMK A01 T00391023  RH  064%=      5-min Rain = 0
KDO1 160558Z 25004KT 04/M02 A301 RMK A01 T00391023  RH  064%=      5-min Rain = 0
KDO1 160559Z 25004KT 04/M02 A301 RMK A01 T00381023  RH  064%=      5-min Rain = 0

Page generated in 0.1216 seconds.